Time,TemperatureF,DewpointF,PressureIn,WindDirection,WindDirectionDegrees,WindSpeedMPH,WindSpeedGustMPH,Humidity,HourlyPrecipIn,Conditions,Clouds,dailyrainin,SoftwareType,DateUTC
2013-01-18 00:02:00,40.4,36.5,30.38,NNW,328,1.0,2.0,86,0.00,,---,0.00,VWS V14.01,2013-01-18 06:02:00,
2013-01-18 00:07:00,40.4,36.5,30.38,West,271,0.0,1.0,86,0.00,,---,0.00,VWS V14.01,2013-01-18 06:07:00,
2013-01-18 00:12:00,40.3,36.8,30.38,WNW,295,1.0,2.0,87,0.00,,---,0.00,VWS V14.01,2013-01-18 06:12:00,
2013-01-18 00:17:00,40.3,36.8,30.38,NW,321,1.0,3.0,87,0.00,,---,0.00,VWS V14.01,2013-01-18 06:17:00,
2013-01-18 00:22:00,40.4,36.8,30.38,NE,42,1.0,2.0,87,0.00,,---,0.00,VWS V14.01,2013-01-18 06:22:00,
2013-01-18 00:27:00,40.5,36.7,30.38,North,350,1.0,3.0,86,0.00,,---,0.00,VWS V14.01,2013-01-18 06:27:00,
2013-01-18 00:32:00,40.5,36.7,30.38,North,8,2.0,4.0,86,0.00,,---,0.00,VWS V14.01,2013-01-18 06:32:00,
2013-01-18 00:37:00,40.6,36.8,30.38,NW,318,1.0,7.0,86,0.00,,---,0.00,VWS V14.01,2013-01-18 06:37:00,
2013-01-18 00:42:00,40.7,36.8,30.38,NW,311,0.0,4.0,86,0.00,,---,0.00,VWS V14.01,2013-01-18 06:42:00,
2013-01-18 00:47:00,41.1,36.9,30.38,NW,321,1.0,3.0,85,0.00,,---,0.00,VWS V14.01,2013-01-18 06:47:00,
2013-01-18 00:52:00,41.1,36.9,30.38,NW,318,3.0,3.0,85,0.00,,---,0.00,VWS V14.01,2013-01-18 06:52:00,
2013-01-18 00:57:00,41.2,36.7,30.39,NNW,337,1.0,2.0,84,0.00,,---,0.00,VWS V14.01,2013-01-18 06:57:00,
2013-01-18 01:02:00,41.2,37.0,30.39,NNW,336,1.0,3.0,85,0.00,,---,0.00,VWS V14.01,2013-01-18 07:02:00,
2013-01-18 01:07:00,41.1,36.9,30.39,North,349,2.0,5.0,85,0.00,,---,0.00,VWS V14.01,2013-01-18 07:07:00,
2013-01-18 01:12:00,41.1,36.9,30.39,NNW,328,1.0,5.0,85,0.00,,---,0.00,VWS V14.01,2013-01-18 07:12:00,
2013-01-18 01:17:00,41.0,36.8,30.39,NW,308,1.0,3.0,85,0.00,,---,0.00,VWS V14.01,2013-01-18 07:17:00,
2013-01-18 01:22:00,40.9,36.8,30.39,WNW,289,1.0,2.0,85,0.00,,---,0.00,VWS V14.01,2013-01-18 07:22:00,
2013-01-18 01:27:00,40.7,36.5,30.39,WNW,300,1.0,3.0,85,0.00,,---,0.00,VWS V14.01,2013-01-18 07:27:00,
2013-01-18 01:32:00,40.6,36.8,30.39,South,176,0.0,2.0,86,0.00,,---,0.00,VWS V14.01,2013-01-18 07:32:00,
2013-01-18 01:37:00,40.3,36.5,30.39,NE,51,2.0,4.0,86,0.00,,---,0.00,VWS V14.01,2013-01-18 07:37:00,
2013-01-18 01:42:00,40.2,36.3,30.39,NW,326,3.0,3.0,86,0.00,,---,0.00,VWS V14.01,2013-01-18 07:42:00,
2013-01-18 01:47:00,40.1,36.5,30.39,East,84,0.0,0.0,87,0.00,,---,0.00,VWS V14.01,2013-01-18 07:47:00,
2013-01-18 01:52:00,39.9,36.3,30.39,NE,47,2.0,4.0,87,0.00,,---,0.00,VWS V14.01,2013-01-18 07:52:00,
2013-01-18 01:57:00,39.8,36.2,30.39,NNE,28,1.0,6.0,87,0.00,,---,0.00,VWS V14.01,2013-01-18 07:57:00,
2013-01-18 02:02:00,39.7,36.4,30.40,North,8,0.0,3.0,88,0.00,,---,0.00,VWS V14.01,2013-01-18 08:02:00,
2013-01-18 02:07:00,39.6,36.3,30.40,NE,41,1.0,3.0,88,0.00,,---,0.00,VWS V14.01,2013-01-18 08:07:00,
2013-01-18 02:12:00,39.5,36.2,30.39,NW,319,8.0,8.0,88,0.00,,---,0.00,VWS V14.01,2013-01-18 08:12:00,
2013-01-18 02:17:00,39.4,36.2,30.39,NW,324,1.0,7.0,88,0.00,,---,0.00,VWS V14.01,2013-01-18 08:17:00,
2013-01-18 02:22:00,39.3,36.0,30.40,NW,321,1.0,3.0,88,0.00,,---,0.00,VWS V14.01,2013-01-18 08:22:00,
2013-01-18 02:27:00,39.2,36.2,30.40,North,352,1.0,2.0,89,0.00,,---,0.00,VWS V14.01,2013-01-18 08:27:00,
2013-01-18 02:32:00,39.1,36.1,30.40,NNW,328,1.0,3.0,89,0.00,,---,0.00,VWS V14.01,2013-01-18 08:32:00,
2013-01-18 02:38:00,39.1,36.1,30.40,East,81,0.0,2.0,89,0.00,,---,0.00,VWS V14.01,2013-01-18 08:38:00,
2013-01-18 02:44:00,38.9,35.9,30.40,NNW,335,2.0,5.0,89,0.00,,---,0.00,VWS V14.01,2013-01-18 08:44:00,
2013-01-18 02:49:00,38.8,35.8,30.40,NW,318,1.0,2.0,89,0.00,,---,0.00,VWS V14.01,2013-01-18 08:49:00,
2013-01-18 02:54:00,38.7,36.0,30.40,NW,324,3.0,3.0,90,0.00,,---,0.00,VWS V14.01,2013-01-18 08:54:00,
2013-01-18 02:59:00,38.7,36.0,30.41,NNW,345,1.0,3.0,90,0.00,,---,0.00,VWS V14.01,2013-01-18 08:59:00,
2013-01-18 03:04:00,38.6,35.9,30.40,NNW,336,2.0,5.0,90,0.00,,---,0.00,VWS V14.01,2013-01-18 09:04:00,
2013-01-18 03:09:00,38.5,35.8,30.41,NW,322,1.0,3.0,90,0.00,,---,0.00,VWS V14.01,2013-01-18 09:09:00,
2013-01-18 03:14:00,38.4,35.7,30.40,North,349,1.0,2.0,90,0.00,,---,0.00,VWS V14.01,2013-01-18 09:14:00,
2013-01-18 03:19:00,38.3,35.6,30.40,NNW,333,2.0,2.0,90,0.00,,---,0.00,VWS V14.01,2013-01-18 09:19:00,
2013-01-18 03:24:00,38.2,35.5,30.41,North,3,0.0,3.0,90,0.00,,---,0.00,VWS V14.01,2013-01-18 09:24:00,
2013-01-18 03:29:00,38.1,35.7,30.41,North,3,2.0,5.0,91,0.00,,---,0.00,VWS V14.01,2013-01-18 09:29:00,
2013-01-18 03:34:00,38.0,35.6,30.41,NW,321,1.0,3.0,91,0.00,,---,0.00,VWS V14.01,2013-01-18 09:34:00,
2013-01-18 03:39:00,37.9,35.5,30.42,NNE,32,1.0,2.0,91,0.00,,---,0.00,VWS V14.01,2013-01-18 09:39:00,
2013-01-18 03:44:00,37.9,35.5,30.42,West,267,2.0,2.0,91,0.00,,---,0.00,VWS V14.01,2013-01-18 09:44:00,
2013-01-18 03:49:00,37.8,35.4,30.42,ENE,68,1.0,2.0,91,0.00,,---,0.00,VWS V14.01,2013-01-18 09:49:00,
2013-01-18 03:54:00,37.7,35.3,30.43,North,11,3.0,3.0,91,0.00,,---,0.00,VWS V14.01,2013-01-18 09:54:00,
2013-01-18 03:59:00,37.6,35.2,30.43,NNW,328,0.0,2.0,91,0.00,,---,0.00,VWS V14.01,2013-01-18 09:59:00,
2013-01-18 04:04:00,37.5,35.4,30.43,NNW,336,1.0,3.0,92,0.00,,---,0.00,VWS V14.01,2013-01-18 10:04:00,
2013-01-18 04:09:00,37.4,35.3,30.43,North,354,1.0,2.0,92,0.00,,---,0.00,VWS V14.01,2013-01-18 10:09:00,
2013-01-18 04:14:00,37.3,35.2,30.43,North,350,1.0,2.0,92,0.00,,---,0.00,VWS V14.01,2013-01-18 10:14:00,
2013-01-18 04:20:00,37.2,35.1,30.43,NNE,12,1.0,2.0,92,0.00,,---,0.00,VWS V14.01,2013-01-18 10:20:00,
2013-01-18 04:25:00,37.1,35.0,30.43,NW,304,2.0,5.0,92,0.00,,---,0.00,VWS V14.01,2013-01-18 10:25:00,
2013-01-18 04:31:00,37.1,35.0,30.43,NNE,23,1.0,1.0,92,0.00,,---,0.00,VWS V14.01,2013-01-18 10:31:00,
2013-01-18 04:37:00,37.0,34.9,30.44,North,1,1.0,1.0,92,0.00,,---,0.00,VWS V14.01,2013-01-18 10:37:00,
2013-01-18 04:42:00,36.9,34.8,30.44,North,349,2.0,2.0,92,0.00,,---,0.00,VWS V14.01,2013-01-18 10:42:00,
2013-01-18 04:47:00,36.8,35.0,30.44,ENE,77,1.0,1.0,93,0.00,,---,0.00,VWS V14.01,2013-01-18 10:47:00,
2013-01-18 04:53:00,36.7,34.9,30.44,ENE,77,1.0,1.0,93,0.00,,---,0.00,VWS V14.01,2013-01-18 10:53:00,
2013-01-18 04:58:00,36.6,34.8,30.44,ENE,65,1.0,5.0,93,0.00,,---,0.00,VWS V14.01,2013-01-18 10:58:00,
2013-01-18 05:03:00,36.6,34.8,30.44,NNE,15,1.0,3.0,93,0.00,,---,0.00,VWS V14.01,2013-01-18 11:03:00,
2013-01-18 05:08:00,36.5,34.7,30.44,ESE,109,1.0,1.0,93,0.00,,---,0.00,VWS V14.01,2013-01-18 11:08:00,
2013-01-18 05:13:00,36.5,34.7,30.44,North,352,1.0,1.0,93,0.00,,---,0.00,VWS V14.01,2013-01-18 11:13:00,
2013-01-18 05:18:00,36.4,34.6,30.44,North,6,1.0,1.0,93,0.00,,---,0.00,VWS V14.01,2013-01-18 11:18:00,
2013-01-18 05:23:00,36.4,34.6,30.45,North,349,0.0,1.0,93,0.00,,---,0.00,VWS V14.01,2013-01-18 11:23:00,
2013-01-18 05:28:00,36.3,34.5,30.45,NNW,336,1.0,3.0,93,0.00,,---,0.00,VWS V14.01,2013-01-18 11:28:00,
2013-01-18 05:33:00,36.3,34.5,30.45,NNE,25,1.0,1.0,93,0.00,,---,0.00,VWS V14.01,2013-01-18 11:33:00,
2013-01-18 05:38:00,36.3,34.5,30.45,NNW,348,1.0,2.0,93,0.00,,---,0.00,VWS V14.01,2013-01-18 11:38:00,
2013-01-18 05:43:00,36.3,34.5,30.45,NE,49,1.0,2.0,93,0.00,,---,0.00,VWS V14.01,2013-01-18 11:43:00,
2013-01-18 05:48:00,36.3,34.5,30.45,NE,35,1.0,3.0,93,0.00,,---,0.00,VWS V14.01,2013-01-18 11:48:00,
2013-01-18 05:53:00,36.3,34.7,30.46,NE,51,1.0,1.0,94,0.00,,---,0.00,VWS V14.01,2013-01-18 11:53:00,
2013-01-18 05:59:00,36.3,34.5,30.46,NE,52,1.0,2.0,93,0.00,,---,0.00,VWS V14.01,2013-01-18 11:59:00,
2013-01-18 06:04:00,36.3,34.5,30.46,NNW,345,2.0,3.0,93,0.00,,---,0.00,VWS V14.01,2013-01-18 12:04:00,
2013-01-18 06:09:00,36.3,34.5,30.47,NNE,15,2.0,3.0,93,0.00,,---,0.00,VWS V14.01,2013-01-18 12:09:00,
2013-01-18 06:14:00,36.2,34.4,30.47,ENE,78,1.0,2.0,93,0.00,,---,0.00,VWS V14.01,2013-01-18 12:14:00,
2013-01-18 06:19:00,36.2,34.4,30.47,ENE,68,1.0,2.0,93,0.00,,---,0.00,VWS V14.01,2013-01-18 12:19:00,
2013-01-18 06:24:00,36.1,34.5,30.47,NE,46,1.0,2.0,94,0.00,,---,0.00,VWS V14.01,2013-01-18 12:24:00,
2013-01-18 06:29:00,36.1,34.5,30.47,North,354,1.0,3.0,94,0.00,,---,0.00,VWS V14.01,2013-01-18 12:29:00,
2013-01-18 06:34:00,36.1,34.5,30.47,NE,56,1.0,3.0,94,0.00,,---,0.00,VWS V14.01,2013-01-18 12:34:00,
2013-01-18 06:39:00,36.1,34.5,30.48,NW,319,1.0,5.0,94,0.00,,---,0.00,VWS V14.01,2013-01-18 12:39:00,
2013-01-18 06:44:00,36.0,34.4,30.48,ENE,71,1.0,2.0,94,0.00,,---,0.00,VWS V14.01,2013-01-18 12:44:00,
2013-01-18 06:49:00,36.0,34.4,30.48,ENE,60,2.0,3.0,94,0.00,,---,0.00,VWS V14.01,2013-01-18 12:49:00,
2013-01-18 06:54:00,36.0,34.4,30.48,WNW,294,1.0,3.0,94,0.00,,---,0.00,VWS V14.01,2013-01-18 12:54:00,
2013-01-18 06:59:00,36.0,34.4,30.48,North,11,1.0,4.0,94,0.00,,---,0.00,VWS V14.01,2013-01-18 12:59:00,
2013-01-18 07:04:00,36.0,34.4,30.48,NE,34,1.0,2.0,94,0.00,,---,0.00,VWS V14.01,2013-01-18 13:04:00,
2013-01-18 07:09:00,35.9,34.3,30.49,NNE,27,2.0,3.0,94,0.00,,---,0.00,VWS V14.01,2013-01-18 13:09:00,
2013-01-18 07:14:00,36.0,34.4,30.49,NE,56,2.0,4.0,94,0.00,,---,0.00,VWS V14.01,2013-01-18 13:14:00,
2013-01-18 07:19:00,36.0,34.4,30.49,NW,312,2.0,2.0,94,0.00,,---,0.00,VWS V14.01,2013-01-18 13:19:00,
2013-01-18 07:24:00,36.0,34.4,30.49,NNW,336,2.0,2.0,94,0.00,,---,0.00,VWS V14.01,2013-01-18 13:24:00,
2013-01-18 07:25:00,36.0,34.4,30.49,NNW,336,2.0,2.0,94,0.00,,---,0.00,VWS V14.01,2013-01-18 13:25:00,
2013-01-18 07:26:00,36.1,34.5,30.49,NE,56,1.0,6.0,94,0.00,,---,0.00,VWS V14.01,2013-01-18 13:26:00,
2013-01-18 07:27:00,36.1,34.5,30.49,NE,49,0.0,1.0,94,0.00,,---,0.00,VWS V14.01,2013-01-18 13:27:00,
2013-01-18 07:28:00,36.1,34.5,30.49,ENE,70,2.0,2.0,94,0.00,,---,0.00,VWS V14.01,2013-01-18 13:28:00,
2013-01-18 07:29:00,36.1,34.5,30.49,NNE,20,1.0,3.0,94,0.00,,---,0.00,VWS V14.01,2013-01-18 13:29:00,
2013-01-18 07:30:00,36.1,34.5,30.49,North,354,2.0,5.0,94,0.00,,---,0.00,VWS V14.01,2013-01-18 13:30:00,
2013-01-18 07:31:00,36.1,34.5,30.49,North,354,2.0,5.0,94,0.00,,---,0.00,VWS V14.01,2013-01-18 13:31:00,
2013-01-18 07:32:00,36.1,34.5,30.49,NNE,18,1.0,2.0,94,0.00,,---,0.00,VWS V14.01,2013-01-18 13:32:00,
2013-01-18 07:33:00,36.1,34.5,30.49,SE,142,2.0,3.0,94,0.00,,---,0.00,VWS V14.01,2013-01-18 13:33:00,
2013-01-18 07:34:00,36.1,34.5,30.49,North,353,1.0,4.0,94,0.00,,---,0.00,VWS V14.01,2013-01-18 13:34:00,
2013-01-18 07:35:00,36.2,34.6,30.49,North,8,1.0,2.0,94,0.00,,---,0.00,VWS V14.01,2013-01-18 13:35:00,
2013-01-18 07:36:00,36.2,34.6,30.49,North,8,1.0,2.0,94,0.00,,---,0.00,VWS V14.01,2013-01-18 13:36:00,
2013-01-18 07:37:00,36.2,34.6,30.49,ENE,65,2.0,2.0,94,0.00,,---,0.00,VWS V14.01,2013-01-18 13:37:00,
2013-01-18 07:38:00,36.2,34.6,30.50,ENE,71,1.0,3.0,94,0.00,,---,0.00,VWS V14.01,2013-01-18 13:38:00,
2013-01-18 07:39:00,36.3,34.7,30.50,NNE,20,2.0,3.0,94,0.00,,---,0.00,VWS V14.01,2013-01-18 13:39:00,
2013-01-18 07:40:00,36.3,34.7,30.49,East,99,2.0,3.0,94,0.00,,---,0.00,VWS V14.01,2013-01-18 13:40:00,
2013-01-18 07:41:00,36.3,34.7,30.49,East,99,2.0,3.0,94,0.00,,---,0.00,VWS V14.01,2013-01-18 13:41:00,
2013-01-18 07:42:00,36.3,34.7,30.50,NNW,343,1.0,4.0,94,0.00,,---,0.00,VWS V14.01,2013-01-18 13:42:00,
2013-01-18 07:43:00,36.4,34.8,30.50,North,360,1.0,2.0,94,0.00,,---,0.00,VWS V14.01,2013-01-18 13:43:00,
2013-01-18 07:44:00,36.4,34.8,30.50,NNW,342,2.0,2.0,94,0.00,,---,0.00,VWS V14.01,2013-01-18 13:44:00,
2013-01-18 07:45:00,36.5,34.9,30.50,North,349,2.0,2.0,94,0.00,,---,0.00,VWS V14.01,2013-01-18 13:45:00,
2013-01-18 07:46:00,36.5,34.9,30.50,North,349,2.0,2.0,94,0.00,,---,0.00,VWS V14.01,2013-01-18 13:46:00,
2013-01-18 07:47:00,36.5,34.9,30.50,NE,40,2.0,2.0,94,0.00,,---,0.00,VWS V14.01,2013-01-18 13:47:00,
2013-01-18 07:48:00,36.5,34.9,30.50,NNW,345,1.0,2.0,94,0.00,,---,0.00,VWS V14.01,2013-01-18 13:48:00,
2013-01-18 07:49:00,36.6,35.0,30.50,North,356,1.0,1.0,94,0.00,,---,0.00,VWS V14.01,2013-01-18 13:49:00,
2013-01-18 07:50:00,36.7,35.1,30.50,NNE,26,1.0,2.0,94,0.00,,---,0.00,VWS V14.01,2013-01-18 13:50:00,
2013-01-18 07:51:00,36.7,35.1,30.50,NNE,26,1.0,2.0,94,0.00,,---,0.00,VWS V14.01,2013-01-18 13:51:00,
2013-01-18 07:52:00,36.8,35.2,30.50,NNW,347,1.0,1.0,94,0.00,,---,0.00,VWS V14.01,2013-01-18 13:52:00,
2013-01-18 07:53:00,36.9,35.3,30.50,East,82,1.0,2.0,94,0.00,,---,0.00,VWS V14.01,2013-01-18 13:53:00,
2013-01-18 07:54:00,36.9,35.1,30.50,NE,52,2.0,2.0,93,0.00,,---,0.00,VWS V14.01,2013-01-18 13:54:00,
2013-01-18 07:55:00,37.1,35.3,30.50,ENE,76,0.0,4.0,93,0.00,,---,0.00,VWS V14.01,2013-01-18 13:55:00,
2013-01-18 07:56:00,37.1,35.3,30.50,ENE,76,0.0,4.0,93,0.00,,---,0.00,VWS V14.01,2013-01-18 13:56:00,
2013-01-18 07:57:00,37.1,35.3,30.50,NE,56,1.0,3.0,93,0.00,,---,0.00,VWS V14.01,2013-01-18 13:57:00,
2013-01-18 07:58:00,37.2,35.4,30.50,NNE,15,2.0,2.0,93,0.00,,---,0.00,VWS V14.01,2013-01-18 13:58:00,
2013-01-18 07:59:00,37.2,35.4,30.50,North,352,3.0,3.0,93,0.00,,---,0.00,VWS V14.01,2013-01-18 13:59:00,
2013-01-18 08:00:00,37.4,35.6,30.50,SSE,148,1.0,2.0,93,0.00,,---,0.00,VWS V14.01,2013-01-18 14:00:00,
2013-01-18 08:01:00,37.4,35.6,30.50,SSE,148,1.0,2.0,93,0.00,,---,0.00,VWS V14.01,2013-01-18 14:01:00,
2013-01-18 08:02:00,37.5,35.7,30.50,NE,50,1.0,4.0,93,0.00,,---,0.00,VWS V14.01,2013-01-18 14:02:00,
2013-01-18 08:03:00,37.6,35.8,30.50,NNE,33,3.0,4.0,93,0.00,,---,0.00,VWS V14.01,2013-01-18 14:03:00,
2013-01-18 08:04:00,37.7,35.6,30.50,NW,311,0.0,3.0,92,0.00,,---,0.00,VWS V14.01,2013-01-18 14:04:00,
2013-01-18 08:05:00,37.9,35.8,30.50,NW,315,3.0,4.0,92,0.00,,---,0.00,VWS V14.01,2013-01-18 14:05:00,
2013-01-18 08:06:00,37.9,35.8,30.50,NW,315,3.0,4.0,92,0.00,,---,0.00,VWS V14.01,2013-01-18 14:06:00,
2013-01-18 08:07:00,37.9,35.8,30.50,NW,317,3.0,3.0,92,0.00,,---,0.00,VWS V14.01,2013-01-18 14:07:00,
2013-01-18 08:08:00,38.0,35.9,30.50,NE,49,2.0,4.0,92,0.00,,---,0.00,VWS V14.01,2013-01-18 14:08:00,
2013-01-18 08:09:00,38.1,36.0,30.50,NNW,347,1.0,3.0,92,0.00,,---,0.00,VWS V14.01,2013-01-18 14:09:00,
2013-01-18 08:10:00,38.2,35.8,30.50,North,354,2.0,3.0,91,0.00,,---,0.00,VWS V14.01,2013-01-18 14:10:00,
2013-01-18 08:11:00,38.2,35.8,30.50,North,354,2.0,3.0,91,0.00,,---,0.00,VWS V14.01,2013-01-18 14:11:00,
2013-01-18 08:12:00,38.3,35.9,30.50,NE,38,2.0,2.0,91,0.00,,---,0.00,VWS V14.01,2013-01-18 14:12:00,
2013-01-18 08:13:00,38.4,36.0,30.50,NNW,330,1.0,2.0,91,0.00,,---,0.00,VWS V14.01,2013-01-18 14:13:00,
2013-01-18 08:14:00,38.4,36.0,30.50,North,4,1.0,2.0,91,0.00,,---,0.00,VWS V14.01,2013-01-18 14:14:00,
2013-01-18 08:15:00,38.5,36.1,30.50,NNE,20,1.0,3.0,91,0.00,,---,0.00,VWS V14.01,2013-01-18 14:15:00,
2013-01-18 08:16:00,38.5,36.1,30.50,NNE,20,1.0,3.0,91,0.00,,---,0.00,VWS V14.01,2013-01-18 14:16:00,
2013-01-18 08:17:00,38.6,36.2,30.50,NW,316,2.0,2.0,91,0.00,,---,0.00,VWS V14.01,2013-01-18 14:17:00,
2013-01-18 08:18:00,38.7,36.3,30.50,NE,36,3.0,5.0,91,0.00,,---,0.00,VWS V14.01,2013-01-18 14:18:00,
2013-01-18 08:19:00,38.8,36.1,30.50,NNE,20,1.0,5.0,90,0.00,,---,0.00,VWS V14.01,2013-01-18 14:19:00,
2013-01-18 08:20:00,38.9,36.2,30.51,North,359,2.0,4.0,90,0.00,,---,0.00,VWS V14.01,2013-01-18 14:20:00,
2013-01-18 08:21:00,38.9,36.2,30.51,North,359,2.0,4.0,90,0.00,,---,0.00,VWS V14.01,2013-01-18 14:21:00,
2013-01-18 08:22:00,39.0,36.3,30.51,North,5,5.0,5.0,90,0.00,,---,0.00,VWS V14.01,2013-01-18 14:22:00,
2013-01-18 08:23:00,39.0,36.3,30.51,NE,44,1.0,5.0,90,0.00,,---,0.00,VWS V14.01,2013-01-18 14:23:00,
2013-01-18 08:24:00,39.1,36.4,30.51,North,356,3.0,5.0,90,0.00,,---,0.00,VWS V14.01,2013-01-18 14:24:00,
2013-01-18 08:25:00,39.2,36.2,30.51,NNE,27,1.0,4.0,89,0.00,,---,0.00,VWS V14.01,2013-01-18 14:25:00,
2013-01-18 08:26:00,39.2,36.2,30.51,NNE,27,1.0,4.0,89,0.00,,---,0.00,VWS V14.01,2013-01-18 14:26:00,
2013-01-18 08:27:00,39.3,36.3,30.51,NE,45,2.0,4.0,89,0.00,,---,0.00,VWS V14.01,2013-01-18 14:27:00,
2013-01-18 08:28:00,39.3,36.3,30.51,North,9,2.0,2.0,89,0.00,,---,0.00,VWS V14.01,2013-01-18 14:28:00,
2013-01-18 08:29:00,39.4,36.4,30.51,North,5,2.0,3.0,89,0.00,,---,0.00,VWS V14.01,2013-01-18 14:29:00,
2013-01-18 08:30:00,39.6,36.3,30.51,North,355,2.0,4.0,88,0.00,,---,0.00,VWS V14.01,2013-01-18 14:30:00,
2013-01-18 08:31:00,39.6,36.3,30.51,North,355,2.0,4.0,88,0.00,,---,0.00,VWS V14.01,2013-01-18 14:31:00,
2013-01-18 08:32:00,39.7,36.4,30.51,North,9,1.0,5.0,88,0.00,,---,0.00,VWS V14.01,2013-01-18 14:32:00,
2013-01-18 08:33:00,39.7,36.4,30.51,NNE,15,2.0,2.0,88,0.00,,---,0.00,VWS V14.01,2013-01-18 14:33:00,
2013-01-18 08:34:00,39.8,36.5,30.51,ENE,70,3.0,3.0,88,0.00,,---,0.00,VWS V14.01,2013-01-18 14:34:00,
2013-01-18 08:35:00,40.0,36.5,30.51,South,188,2.0,3.0,87,0.00,,---,0.00,VWS V14.01,2013-01-18 14:35:00,
2013-01-18 08:36:00,40.0,36.5,30.51,South,188,2.0,3.0,87,0.00,,---,0.00,VWS V14.01,2013-01-18 14:36:00,
2013-01-18 08:37:00,40.0,36.5,30.51,NNW,328,3.0,6.0,87,0.00,,---,0.00,VWS V14.01,2013-01-18 14:37:00,
2013-01-18 08:38:00,40.1,36.5,30.51,East,83,4.0,4.0,87,0.00,,---,0.00,VWS V14.01,2013-01-18 14:38:00,
2013-01-18 08:39:00,40.1,36.5,30.51,NE,52,4.0,13.0,87,0.00,,---,0.00,VWS V14.01,2013-01-18 14:39:00,
2013-01-18 08:40:00,40.3,36.2,30.51,ENE,68,1.0,5.0,85,0.00,,---,0.00,VWS V14.01,2013-01-18 14:40:00,
2013-01-18 08:41:00,40.3,36.2,30.51,ENE,68,1.0,5.0,85,0.00,,---,0.00,VWS V14.01,2013-01-18 14:41:00,
2013-01-18 08:42:00,40.4,36.3,30.51,NE,39,4.0,9.0,85,0.00,,---,0.00,VWS V14.01,2013-01-18 14:42:00,
2013-01-18 08:43:00,40.5,36.3,30.51,SE,129,1.0,6.0,85,0.00,,---,0.00,VWS V14.01,2013-01-18 14:43:00,
2013-01-18 08:44:00,40.6,36.5,30.51,NE,43,3.0,6.0,85,0.00,,---,0.00,VWS V14.01,2013-01-18 14:44:00,
2013-01-18 08:45:00,40.8,36.7,30.51,NE,40,2.0,8.0,85,0.00,,---,0.00,VWS V14.01,2013-01-18 14:45:00,
2013-01-18 08:46:00,40.8,36.7,30.51,NE,40,2.0,8.0,85,0.00,,---,0.00,VWS V14.01,2013-01-18 14:46:00,
2013-01-18 08:47:00,40.8,36.3,30.51,NE,41,1.0,3.0,84,0.00,,---,0.00,VWS V14.01,2013-01-18 14:47:00,
2013-01-18 08:48:00,40.9,36.5,30.51,NE,55,8.0,12.0,84,0.00,,---,0.00,VWS V14.01,2013-01-18 14:48:00,
2013-01-18 08:49:00,40.9,36.5,30.51,NE,45,3.0,8.0,84,0.00,,---,0.00,VWS V14.01,2013-01-18 14:49:00,
2013-01-18 08:50:00,41.1,36.6,30.51,NE,39,3.0,8.0,84,0.00,,---,0.00,VWS V14.01,2013-01-18 14:50:00,
2013-01-18 08:51:00,41.1,36.6,30.51,NE,39,3.0,8.0,84,0.00,,---,0.00,VWS V14.01,2013-01-18 14:51:00,
2013-01-18 08:52:00,41.1,36.3,30.51,ENE,58,1.0,8.0,83,0.00,,---,0.00,VWS V14.01,2013-01-18 14:52:00,
2013-01-18 08:53:00,41.2,36.4,30.51,NE,49,3.0,11.0,83,0.00,,---,0.00,VWS V14.01,2013-01-18 14:53:00,
2013-01-18 08:54:00,41.3,36.5,30.52,ENE,60,3.0,4.0,83,0.00,,---,0.00,VWS V14.01,2013-01-18 14:54:00,
2013-01-18 08:55:00,41.6,36.8,30.52,North,9,2.0,4.0,83,0.00,,---,0.00,VWS V14.01,2013-01-18 14:55:00,
2013-01-18 08:56:00,41.6,36.8,30.52,North,9,2.0,4.0,83,0.00,,---,0.00,VWS V14.01,2013-01-18 14:56:00,
2013-01-18 08:57:00,41.7,36.6,30.52,North,8,1.0,2.0,82,0.00,,---,0.00,VWS V14.01,2013-01-18 14:57:00,
2013-01-18 08:58:00,41.8,36.7,30.52,NNW,345,2.0,3.0,82,0.00,,---,0.00,VWS V14.01,2013-01-18 14:58:00,
2013-01-18 08:59:00,41.9,36.8,30.52,ENE,73,1.0,4.0,82,0.00,,---,0.00,VWS V14.01,2013-01-18 14:59:00,
2013-01-18 09:00:00,42.0,36.6,30.52,NE,56,1.0,3.0,81,0.00,,---,0.00,VWS V14.01,2013-01-18 15:00:00,
2013-01-18 09:01:00,42.0,36.6,30.52,NE,56,1.0,3.0,81,0.00,,---,0.00,VWS V14.01,2013-01-18 15:01:00,
2013-01-18 09:02:00,42.2,36.8,30.52,ENE,60,3.0,7.0,81,0.00,,---,0.00,VWS V14.01,2013-01-18 15:02:00,
2013-01-18 09:03:00,42.2,36.8,30.52,NE,46,5.0,5.0,81,0.00,,---,0.00,VWS V14.01,2013-01-18 15:03:00,
2013-01-18 09:04:00,42.3,36.9,30.52,NNW,336,3.0,5.0,81,0.00,,---,0.00,VWS V14.01,2013-01-18 15:04:00,
2013-01-18 09:05:00,42.5,36.8,30.52,NNE,23,1.0,4.0,80,0.00,,---,0.00,VWS V14.01,2013-01-18 15:05:00,
2013-01-18 09:06:00,42.5,36.8,30.52,NNE,23,1.0,4.0,80,0.00,,---,0.00,VWS V14.01,2013-01-18 15:06:00,
2013-01-18 09:07:00,42.5,36.8,30.52,NE,44,3.0,6.0,80,0.00,,---,0.00,VWS V14.01,2013-01-18 15:07:00,
2013-01-18 09:08:00,42.6,36.9,30.52,ENE,65,5.0,5.0,80,0.00,,---,0.00,VWS V14.01,2013-01-18 15:08:00,
2013-01-18 09:09:00,42.7,37.0,30.52,NNW,335,3.0,6.0,80,0.00,,---,0.00,VWS V14.01,2013-01-18 15:09:00,
2013-01-18 09:10:00,42.8,36.8,30.52,NE,53,2.0,5.0,79,0.00,,---,0.00,VWS V14.01,2013-01-18 15:10:00,
2013-01-18 09:11:00,42.8,36.8,30.52,NE,53,2.0,5.0,79,0.00,,---,0.00,VWS V14.01,2013-01-18 15:11:00,
2013-01-18 09:12:00,42.8,36.8,30.52,NE,56,2.0,3.0,79,0.00,,---,0.00,VWS V14.01,2013-01-18 15:12:00,
2013-01-18 09:13:00,42.9,37.2,30.52,NE,47,2.0,6.0,80,0.00,,---,0.00,VWS V14.01,2013-01-18 15:13:00,
2013-01-18 09:14:00,43.0,36.9,30.52,North,6,5.0,5.0,79,0.00,,---,0.00,VWS V14.01,2013-01-18 15:14:00,
2013-01-18 09:15:00,43.3,37.2,30.52,NNW,347,1.0,2.0,79,0.00,,---,0.00,VWS V14.01,2013-01-18 15:15:00,
2013-01-18 09:16:00,43.3,37.2,30.52,NNW,347,1.0,2.0,79,0.00,,---,0.00,VWS V14.01,2013-01-18 15:16:00,
2013-01-18 09:17:00,43.4,37.3,30.52,NNW,333,1.0,1.0,79,0.00,,---,0.00,VWS V14.01,2013-01-18 15:17:00,
2013-01-18 09:18:00,43.5,37.4,30.52,NNE,20,1.0,7.0,79,0.00,,---,0.00,VWS V14.01,2013-01-18 15:18:00,
2013-01-18 09:19:00,43.7,37.3,30.52,NNE,20,1.0,3.0,78,0.00,,---,0.00,VWS V14.01,2013-01-18 15:19:00,
2013-01-18 09:20:00,43.8,37.1,30.53,NNE,25,4.0,6.0,77,0.00,,---,0.00,VWS V14.01,2013-01-18 15:20:00,
2013-01-18 09:21:00,43.8,37.1,30.53,NNE,25,4.0,6.0,77,0.00,,---,0.00,VWS V14.01,2013-01-18 15:21:00,
2013-01-18 09:22:00,43.9,37.2,30.53,NE,52,1.0,4.0,77,0.00,,---,0.00,VWS V14.01,2013-01-18 15:22:00,
2013-01-18 09:23:00,43.9,36.8,30.53,NE,53,4.0,5.0,76,0.00,,---,0.00,VWS V14.01,2013-01-18 15:23:00,
2013-01-18 09:24:00,43.9,36.8,30.52,ESE,115,3.0,8.0,76,0.00,,---,0.00,VWS V14.01,2013-01-18 15:24:00,
2013-01-18 09:25:00,44.0,36.9,30.52,NE,52,3.0,5.0,76,0.00,,---,0.00,VWS V14.01,2013-01-18 15:25:00,
2013-01-18 09:26:00,44.0,36.9,30.52,NE,52,3.0,5.0,76,0.00,,---,0.00,VWS V14.01,2013-01-18 15:26:00,
2013-01-18 09:27:00,44.0,36.9,30.52,ENE,65,1.0,3.0,76,0.00,,---,0.00,VWS V14.01,2013-01-18 15:27:00,
2013-01-18 09:28:00,44.1,37.0,30.52,NW,313,2.0,5.0,76,0.00,,---,0.00,VWS V14.01,2013-01-18 15:28:00,
2013-01-18 09:29:00,44.2,37.1,30.52,ESE,117,2.0,5.0,76,0.00,,---,0.00,VWS V14.01,2013-01-18 15:29:00,
2013-01-18 09:30:00,44.3,36.9,30.52,NNE,23,1.0,5.0,75,0.00,,---,0.00,VWS V14.01,2013-01-18 15:30:00,
2013-01-18 09:31:00,44.3,36.9,30.52,NNE,23,1.0,5.0,75,0.00,,---,0.00,VWS V14.01,2013-01-18 15:31:00,
2013-01-18 09:32:00,44.3,36.9,30.52,NW,325,3.0,3.0,75,0.00,,---,0.00,VWS V14.01,2013-01-18 15:32:00,
2013-01-18 09:33:00,44.4,37.0,30.52,NE,41,5.0,7.0,75,0.00,,---,0.00,VWS V14.01,2013-01-18 15:33:00,
2013-01-18 09:34:00,44.5,37.1,30.52,ENE,58,4.0,9.0,75,0.00,,---,0.00,VWS V14.01,2013-01-18 15:34:00,
2013-01-18 09:35:00,44.5,36.7,30.53,ENE,76,4.0,8.0,74,0.00,,---,0.00,VWS V14.01,2013-01-18 15:35:00,
2013-01-18 09:36:00,44.5,36.7,30.53,ENE,76,4.0,8.0,74,0.00,,---,0.00,VWS V14.01,2013-01-18 15:36:00,
2013-01-18 09:37:00,44.5,36.7,30.53,ENE,65,8.0,8.0,74,0.00,,---,0.00,VWS V14.01,2013-01-18 15:37:00,
2013-01-18 09:38:00,44.5,36.7,30.53,ENE,71,2.0,9.0,74,0.00,,---,0.00,VWS V14.01,2013-01-18 15:38:00,
2013-01-18 09:39:00,44.5,36.7,30.53,East,79,3.0,8.0,74,0.00,,---,0.00,VWS V14.01,2013-01-18 15:39:00,
2013-01-18 09:40:00,44.6,36.8,30.53,ENE,73,3.0,8.0,74,0.00,,---,0.00,VWS V14.01,2013-01-18 15:40:00,
2013-01-18 09:41:00,44.6,36.8,30.53,ENE,73,3.0,8.0,74,0.00,,---,0.00,VWS V14.01,2013-01-18 15:41:00,
2013-01-18 09:42:00,44.7,36.9,30.53,NE,55,4.0,9.0,74,0.00,,---,0.00,VWS V14.01,2013-01-18 15:42:00,
2013-01-18 09:43:00,44.7,36.9,30.53,ENE,58,7.0,12.0,74,0.00,,---,0.00,VWS V14.01,2013-01-18 15:43:00,
2013-01-18 09:44:00,44.7,36.6,30.53,ENE,75,9.0,9.0,73,0.00,,---,0.00,VWS V14.01,2013-01-18 15:44:00,
2013-01-18 09:45:00,44.7,36.6,30.53,ENE,75,4.0,8.0,73,0.00,,---,0.00,VWS V14.01,2013-01-18 15:45:00,
2013-01-18 09:46:00,44.7,36.6,30.53,ENE,75,4.0,8.0,73,0.00,,---,0.00,VWS V14.01,2013-01-18 15:46:00,
2013-01-18 09:47:00,44.8,36.7,30.53,ENE,63,5.0,10.0,73,0.00,,---,0.00,VWS V14.01,2013-01-18 15:47:00,
2013-01-18 09:48:00,44.8,37.0,30.53,ENE,60,2.0,9.0,74,0.00,,---,0.00,VWS V14.01,2013-01-18 15:48:00,
2013-01-18 09:49:00,44.9,37.1,30.53,North,353,2.0,5.0,74,0.00,,---,0.00,VWS V14.01,2013-01-18 15:49:00,
2013-01-18 09:50:00,45.2,37.4,30.53,ENE,65,5.0,6.0,74,0.00,,---,0.00,VWS V14.01,2013-01-18 15:50:00,
2013-01-18 09:51:00,45.2,37.4,30.53,ENE,65,5.0,6.0,74,0.00,,---,0.00,VWS V14.01,2013-01-18 15:51:00,
2013-01-18 09:52:00,45.3,37.5,30.53,ENE,77,1.0,5.0,74,0.00,,---,0.00,VWS V14.01,2013-01-18 15:52:00,
2013-01-18 09:53:00,45.4,37.6,30.53,NE,53,1.0,2.0,74,0.00,,---,0.00,VWS V14.01,2013-01-18 15:53:00,
2013-01-18 09:54:00,45.5,37.7,30.53,ENE,58,8.0,9.0,74,0.00,,---,0.00,VWS V14.01,2013-01-18 15:54:00,
2013-01-18 09:55:00,45.7,37.5,30.53,NNW,339,4.0,4.0,73,0.00,,---,0.00,VWS V14.01,2013-01-18 15:55:00,
2013-01-18 09:56:00,45.7,37.5,30.53,NNW,339,4.0,4.0,73,0.00,,---,0.00,VWS V14.01,2013-01-18 15:56:00,
2013-01-18 09:57:00,45.7,37.5,30.53,ENE,59,1.0,5.0,73,0.00,,---,0.00,VWS V14.01,2013-01-18 15:57:00,
2013-01-18 09:58:00,45.9,37.8,30.53,North,6,2.0,6.0,73,0.00,,---,0.00,VWS V14.01,2013-01-18 15:58:00,
2013-01-18 09:59:00,46.0,37.8,30.53,East,79,6.0,6.0,73,0.00,,---,0.00,VWS V14.01,2013-01-18 15:59:00,
2013-01-18 10:00:00,46.1,37.6,30.52,NE,53,4.0,7.0,72,0.00,,---,0.00,VWS V14.01,2013-01-18 16:00:00,
2013-01-18 10:01:00,46.1,37.6,30.52,NE,53,4.0,7.0,72,0.00,,---,0.00,VWS V14.01,2013-01-18 16:01:00,
2013-01-18 10:02:00,46.2,37.7,30.52,NNE,23,2.0,6.0,72,0.00,,---,0.00,VWS V14.01,2013-01-18 16:02:00,
2013-01-18 10:03:00,46.3,38.1,30.52,NNE,23,2.0,3.0,73,0.00,,---,0.00,VWS V14.01,2013-01-18 16:03:00,
2013-01-18 10:04:00,46.4,37.9,30.52,North,1,4.0,4.0,72,0.00,,---,0.00,VWS V14.01,2013-01-18 16:04:00,
2013-01-18 10:05:00,46.7,38.2,30.52,NE,43,2.0,7.0,72,0.00,,---,0.00,VWS V14.01,2013-01-18 16:05:00,
2013-01-18 10:06:00,46.7,38.2,30.52,NE,43,2.0,7.0,72,0.00,,---,0.00,VWS V14.01,2013-01-18 16:06:00,
2013-01-18 10:07:00,46.9,38.4,30.52,NNW,340,4.0,4.0,72,0.00,,---,0.00,VWS V14.01,2013-01-18 16:07:00,
2013-01-18 10:08:00,47.0,38.1,30.52,NNW,332,3.0,4.0,71,0.00,,---,0.00,VWS V14.01,2013-01-18 16:08:00,
2013-01-18 10:09:00,47.1,38.2,30.52,NNW,330,1.0,3.0,71,0.00,,---,0.00,VWS V14.01,2013-01-18 16:09:00,
2013-01-18 10:10:00,47.3,38.4,30.52,East,79,8.0,9.0,71,0.00,,---,0.00,VWS V14.01,2013-01-18 16:10:00,
2013-01-18 10:13:00,47.5,38.2,30.52,North,350,2.0,6.0,70,0.00,,---,0.00,VWS V14.01,2013-01-18 16:13:00,
2013-01-18 10:14:00,47.5,38.6,30.52,North,355,2.0,2.0,71,0.00,,---,0.00,VWS V14.01,2013-01-18 16:14:00,
2013-01-18 10:15:00,47.7,38.0,30.52,ENE,68,2.0,6.0,69,0.00,,---,0.00,VWS V14.01,2013-01-18 16:15:00,
2013-01-18 10:17:00,47.7,38.4,30.52,ENE,68,4.0,6.0,70,0.00,,---,0.00,VWS V14.01,2013-01-18 16:17:00,
2013-01-18 10:19:00,47.7,38.4,30.52,ESE,103,2.0,7.0,70,0.00,,---,0.00,VWS V14.01,2013-01-18 16:19:00,
2013-01-18 10:20:00,47.7,38.0,30.52,East,96,3.0,3.0,69,0.00,,---,0.00,VWS V14.01,2013-01-18 16:20:00,
2013-01-18 10:21:00,48.0,39.4,30.52,NE,35,3.0,4.0,72,0.00,,---,0.00,VWS V14.01,2013-01-18 16:21:00,
2013-01-18 10:22:00,48.0,39.4,30.52,NE,35,3.0,4.0,72,0.00,,---,0.00,VWS V14.01,2013-01-18 16:22:00,
2013-01-18 10:23:00,48.1,39.2,30.52,WNW,302,2.0,3.0,71,0.00,,---,0.00,VWS V14.01,2013-01-18 16:23:00,
2013-01-18 10:24:00,48.3,39.0,30.52,NW,318,2.0,3.0,70,0.00,,---,0.00,VWS V14.01,2013-01-18 16:24:00,
2013-01-18 10:25:00,48.4,39.1,30.52,ESE,110,1.0,2.0,70,0.00,,---,0.00,VWS V14.01,2013-01-18 16:25:00,
2013-01-18 10:26:00,48.5,38.8,30.52,NE,56,0.0,3.0,69,0.00,,---,0.00,VWS V14.01,2013-01-18 16:26:00,
2013-01-18 10:27:00,48.5,38.8,30.52,NE,56,0.0,3.0,69,0.00,,---,0.00,VWS V14.01,2013-01-18 16:27:00,
2013-01-18 10:28:00,48.6,38.9,30.52,ENE,68,0.0,1.0,69,0.00,,---,0.00,VWS V14.01,2013-01-18 16:28:00,
2013-01-18 10:29:00,48.6,38.9,30.52,North,9,1.0,4.0,69,0.00,,---,0.00,VWS V14.01,2013-01-18 16:29:00,
2013-01-18 10:30:00,48.7,38.6,30.52,NNW,329,1.0,4.0,68,0.00,,---,0.00,VWS V14.01,2013-01-18 16:30:00,
2013-01-18 10:31:00,49.0,39.3,30.52,NNW,333,3.0,3.0,69,0.00,,---,0.00,VWS V14.01,2013-01-18 16:31:00,
2013-01-18 10:32:00,49.0,39.3,30.52,NNW,333,3.0,3.0,69,0.00,,---,0.00,VWS V14.01,2013-01-18 16:32:00,
2013-01-18 10:33:00,49.2,39.1,30.52,NNW,335,3.0,5.0,68,0.00,,---,0.00,VWS V14.01,2013-01-18 16:33:00,
2013-01-18 10:34:00,49.3,39.2,30.52,NNW,347,2.0,3.0,68,0.00,,---,0.00,VWS V14.01,2013-01-18 16:34:00,
2013-01-18 10:35:00,49.4,39.7,30.52,North,356,2.0,4.0,69,0.00,,---,0.00,VWS V14.01,2013-01-18 16:35:00,
2013-01-18 10:36:00,49.6,39.1,30.51,North,356,3.0,4.0,67,0.00,,---,0.00,VWS V14.01,2013-01-18 16:36:00,
2013-01-18 10:37:00,49.6,39.1,30.51,North,356,3.0,4.0,67,0.00,,---,0.00,VWS V14.01,2013-01-18 16:37:00,
2013-01-18 10:38:00,49.6,38.7,30.51,East,90,2.0,3.0,66,0.00,,---,0.00,VWS V14.01,2013-01-18 16:38:00,
2013-01-18 10:39:00,49.6,39.1,30.51,North,1,1.0,3.0,67,0.00,,---,0.00,VWS V14.01,2013-01-18 16:39:00,
2013-01-18 10:40:00,49.7,39.6,30.51,NNW,332,0.0,1.0,68,0.00,,---,0.00,VWS V14.01,2013-01-18 16:40:00,
2013-01-18 10:41:00,49.8,39.7,30.51,ENE,68,3.0,6.0,68,0.00,,---,0.00,VWS V14.01,2013-01-18 16:41:00,
2013-01-18 10:42:00,49.9,39.0,30.51,East,91,2.0,2.0,66,0.00,,---,0.00,VWS V14.01,2013-01-18 16:42:00,
2013-01-18 10:43:00,49.9,39.0,30.51,East,91,2.0,2.0,66,0.00,,---,0.00,VWS V14.01,2013-01-18 16:43:00,
2013-01-18 10:44:00,49.9,39.0,30.51,East,98,2.0,5.0,66,0.00,,---,0.00,VWS V14.01,2013-01-18 16:44:00,
2013-01-18 10:45:00,49.9,39.0,30.51,East,86,3.0,3.0,66,0.00,,---,0.00,VWS V14.01,2013-01-18 16:45:00,
2013-01-18 10:46:00,50.0,39.1,30.51,East,88,4.0,5.0,66,0.00,,---,0.00,VWS V14.01,2013-01-18 16:46:00,
2013-01-18 10:47:00,49.9,38.6,30.51,East,98,1.0,4.0,65,0.00,,---,0.00,VWS V14.01,2013-01-18 16:47:00,
2013-01-18 10:48:00,49.9,39.0,30.51,ENE,73,3.0,3.0,66,0.00,,---,0.00,VWS V14.01,2013-01-18 16:48:00,
2013-01-18 10:49:00,49.9,39.0,30.51,ENE,73,3.0,3.0,66,0.00,,---,0.00,VWS V14.01,2013-01-18 16:49:00,
2013-01-18 10:50:00,50.0,38.7,30.51,East,90,1.0,5.0,65,0.00,,---,0.00,VWS V14.01,2013-01-18 16:50:00,
2013-01-18 10:51:00,50.0,39.1,30.51,East,90,3.0,3.0,66,0.00,,---,0.00,VWS V14.01,2013-01-18 16:51:00,
2013-01-18 10:52:00,50.1,39.2,30.51,ESE,123,4.0,4.0,66,0.00,,---,0.00,VWS V14.01,2013-01-18 16:52:00,
2013-01-18 10:53:00,50.1,38.8,30.51,ENE,71,5.0,9.0,65,0.00,,---,0.00,VWS V14.01,2013-01-18 16:53:00,
2013-01-18 10:54:00,50.1,38.8,30.51,ENE,71,5.0,9.0,65,0.00,,---,0.00,VWS V14.01,2013-01-18 16:54:00,
2013-01-18 10:55:00,50.0,38.7,30.51,ESE,107,1.0,8.0,65,0.00,,---,0.00,VWS V14.01,2013-01-18 16:55:00,
2013-01-18 10:56:00,50.1,39.2,30.51,East,82,3.0,3.0,66,0.00,,---,0.00,VWS V14.01,2013-01-18 16:56:00,
2013-01-18 10:57:00,50.1,38.8,30.51,ENE,77,1.0,3.0,65,0.00,,---,0.00,VWS V14.01,2013-01-18 16:57:00,
2013-01-18 10:58:00,50.2,39.3,30.51,North,351,1.0,4.0,66,0.00,,---,0.00,VWS V14.01,2013-01-18 16:58:00,
2013-01-18 10:59:00,50.2,39.3,30.51,North,351,1.0,4.0,66,0.00,,---,0.00,VWS V14.01,2013-01-18 16:59:00,
2013-01-18 11:00:00,50.4,39.5,30.50,ENE,70,6.0,6.0,66,0.00,,---,0.00,VWS V14.01,2013-01-18 17:00:00,
2013-01-18 11:01:00,50.5,38.8,30.50,ENE,64,2.0,6.0,64,0.00,,---,0.00,VWS V14.01,2013-01-18 17:01:00,
2013-01-18 11:02:00,50.5,38.8,30.50,North,349,1.0,5.0,64,0.00,,---,0.00,VWS V14.01,2013-01-18 17:02:00,
2013-01-18 11:03:00,50.4,39.1,30.50,ESE,105,1.0,3.0,65,0.00,,---,0.00,VWS V14.01,2013-01-18 17:03:00,
2013-01-18 11:04:00,50.4,39.1,30.50,ESE,105,1.0,3.0,65,0.00,,---,0.00,VWS V14.01,2013-01-18 17:04:00,
2013-01-18 11:05:00,50.5,39.6,30.50,NW,307,1.0,2.0,66,0.00,,---,0.00,VWS V14.01,2013-01-18 17:05:00,
2013-01-18 11:06:00,50.5,39.2,30.50,NE,49,2.0,3.0,65,0.00,,---,0.00,VWS V14.01,2013-01-18 17:06:00,
2013-01-18 11:07:00,50.6,39.3,30.50,NNW,339,1.0,3.0,65,0.00,,---,0.00,VWS V14.01,2013-01-18 17:07:00,
2013-01-18 11:08:00,50.8,39.5,30.50,NNW,339,1.0,2.0,65,0.00,,---,0.00,VWS V14.01,2013-01-18 17:08:00,
2013-01-18 11:09:00,51.0,39.7,30.50,ENE,76,2.0,3.0,65,0.00,,---,0.00,VWS V14.01,2013-01-18 17:09:00,
2013-01-18 11:10:00,51.0,39.7,30.50,ENE,76,2.0,3.0,65,0.00,,---,0.00,VWS V14.01,2013-01-18 17:10:00,
2013-01-18 11:11:00,51.1,39.8,30.50,ENE,75,2.0,5.0,65,0.00,,---,0.00,VWS V14.01,2013-01-18 17:11:00,
2013-01-18 11:12:00,51.1,39.4,30.50,ENE,68,1.0,4.0,64,0.00,,---,0.00,VWS V14.01,2013-01-18 17:12:00,
2013-01-18 11:13:00,51.2,39.5,30.50,ENE,73,4.0,6.0,64,0.00,,---,0.00,VWS V14.01,2013-01-18 17:13:00,
2013-01-18 11:14:00,51.2,39.0,30.50,East,96,3.0,4.0,63,0.00,,---,0.00,VWS V14.01,2013-01-18 17:14:00,
2013-01-18 11:15:00,51.1,39.0,30.50,ENE,71,0.0,5.0,63,0.00,,---,0.00,VWS V14.01,2013-01-18 17:15:00,
2013-01-18 11:16:00,51.1,39.0,30.50,ENE,71,0.0,5.0,63,0.00,,---,0.00,VWS V14.01,2013-01-18 17:16:00,
2013-01-18 11:17:00,51.1,39.4,30.50,SE,137,1.0,2.0,64,0.00,,---,0.00,VWS V14.01,2013-01-18 17:17:00,
2013-01-18 11:18:00,51.1,39.4,30.50,ENE,65,2.0,3.0,64,0.00,,---,0.00,VWS V14.01,2013-01-18 17:18:00,
2013-01-18 11:19:00,51.2,39.5,30.50,ENE,70,6.0,6.0,64,0.00,,---,0.00,VWS V14.01,2013-01-18 17:19:00,
2013-01-18 11:20:00,51.3,39.5,30.50,East,90,3.0,6.0,64,0.00,,---,0.00,VWS V14.01,2013-01-18 17:20:00,
2013-01-18 11:21:00,51.2,39.0,30.50,ENE,68,1.0,3.0,63,0.00,,---,0.00,VWS V14.01,2013-01-18 17:21:00,
2013-01-18 11:22:00,51.2,39.0,30.50,ENE,68,1.0,3.0,63,0.00,,---,0.00,VWS V14.01,2013-01-18 17:22:00,
2013-01-18 11:23:00,51.2,39.5,30.50,North,356,3.0,5.0,64,0.00,,---,0.00,VWS V14.01,2013-01-18 17:23:00,
2013-01-18 11:24:00,51.3,39.2,30.50,ENE,65,3.0,4.0,63,0.00,,---,0.00,VWS V14.01,2013-01-18 17:24:00,
2013-01-18 11:25:00,51.4,39.7,30.49,NNW,333,3.0,3.0,64,0.00,,---,0.00,VWS V14.01,2013-01-18 17:25:00,
2013-01-18 11:26:00,51.4,39.2,30.49,NW,308,4.0,4.0,63,0.00,,---,0.00,VWS V14.01,2013-01-18 17:26:00,
2013-01-18 11:27:00,51.4,39.2,30.49,NW,308,4.0,4.0,63,0.00,,---,0.00,VWS V14.01,2013-01-18 17:27:00,
2013-01-18 11:28:00,51.5,39.7,30.49,ENE,61,1.0,4.0,64,0.00,,---,0.00,VWS V14.01,2013-01-18 17:28:00,
2013-01-18 11:29:00,51.6,39.8,30.49,East,83,2.0,2.0,64,0.00,,---,0.00,VWS V14.01,2013-01-18 17:29:00,
2013-01-18 11:30:00,51.8,39.6,30.49,ESE,122,1.0,3.0,63,0.00,,---,0.00,VWS V14.01,2013-01-18 17:30:00,
2013-01-18 11:31:00,51.8,39.6,30.49,NE,36,3.0,9.0,63,0.00,,---,0.00,VWS V14.01,2013-01-18 17:31:00,
2013-01-18 11:32:00,51.8,39.6,30.49,NE,36,3.0,9.0,63,0.00,,---,0.00,VWS V14.01,2013-01-18 17:32:00,
2013-01-18 11:33:00,51.8,39.6,30.49,NNW,345,1.0,3.0,63,0.00,,---,0.00,VWS V14.01,2013-01-18 17:33:00,
2013-01-18 11:34:00,51.9,40.1,30.49,NNE,12,4.0,4.0,64,0.00,,---,0.00,VWS V14.01,2013-01-18 17:34:00,
2013-01-18 11:35:00,52.0,39.8,30.49,NE,50,2.0,4.0,63,0.00,,---,0.00,VWS V14.01,2013-01-18 17:35:00,
2013-01-18 11:36:00,52.2,40.4,30.49,ENE,70,2.0,3.0,64,0.00,,---,0.00,VWS V14.01,2013-01-18 17:36:00,
2013-01-18 11:37:00,52.2,40.4,30.49,ENE,70,2.0,3.0,64,0.00,,---,0.00,VWS V14.01,2013-01-18 17:37:00,
2013-01-18 11:38:00,52.4,40.2,30.49,North,9,2.0,5.0,63,0.00,,---,0.00,VWS V14.01,2013-01-18 17:38:00,
2013-01-18 11:39:00,52.5,39.9,30.48,East,101,1.0,5.0,62,0.00,,---,0.00,VWS V14.01,2013-01-18 17:39:00,
2013-01-18 11:40:00,52.5,40.3,30.48,ENE,61,2.0,4.0,63,0.00,,---,0.00,VWS V14.01,2013-01-18 17:40:00,
2013-01-18 11:41:00,52.7,40.1,30.48,NNE,22,3.0,5.0,62,0.00,,---,0.00,VWS V14.01,2013-01-18 17:41:00,
2013-01-18 11:42:00,52.7,40.1,30.48,NNE,22,3.0,5.0,62,0.00,,---,0.00,VWS V14.01,2013-01-18 17:42:00,
2013-01-18 11:43:00,52.8,40.2,30.48,ENE,64,4.0,5.0,62,0.00,,---,0.00,VWS V14.01,2013-01-18 17:43:00,
2013-01-18 11:44:00,52.7,39.6,30.48,ESE,107,3.0,5.0,61,0.00,,---,0.00,VWS V14.01,2013-01-18 17:44:00,
2013-01-18 11:45:00,52.6,39.5,30.48,ENE,73,1.0,4.0,61,0.00,,---,0.00,VWS V14.01,2013-01-18 17:45:00,
2013-01-18 11:46:00,52.6,40.4,30.48,North,9,1.0,1.0,63,0.00,,---,0.00,VWS V14.01,2013-01-18 17:46:00,
2013-01-18 11:47:00,52.8,40.6,30.48,North,11,1.0,4.0,63,0.00,,---,0.00,VWS V14.01,2013-01-18 17:47:00,
2013-01-18 11:48:00,52.8,40.6,30.48,North,11,1.0,4.0,63,0.00,,---,0.00,VWS V14.01,2013-01-18 17:48:00,
2013-01-18 11:49:00,53.0,40.3,30.48,East,87,1.0,2.0,62,0.00,,---,0.00,VWS V14.01,2013-01-18 17:49:00,
2013-01-18 11:50:00,53.1,40.0,30.48,NNE,30,1.0,2.0,61,0.00,,---,0.00,VWS V14.01,2013-01-18 17:50:00,
2013-01-18 11:51:00,53.1,40.0,30.48,NNW,333,2.0,3.0,61,0.00,,---,0.00,VWS V14.01,2013-01-18 17:51:00,
2013-01-18 11:52:00,53.1,40.0,30.48,NNW,345,0.0,0.0,61,0.00,,---,0.00,VWS V14.01,2013-01-18 17:52:00,
2013-01-18 11:53:00,53.1,40.0,30.48,NNW,345,0.0,0.0,61,0.00,,---,0.00,VWS V14.01,2013-01-18 17:53:00,
2013-01-18 11:54:00,53.1,40.0,30.48,NNW,329,1.0,1.0,61,0.00,,---,0.00,VWS V14.01,2013-01-18 17:54:00,
2013-01-18 11:55:00,53.1,40.0,30.48,ENE,60,4.0,5.0,61,0.00,,---,0.00,VWS V14.01,2013-01-18 17:55:00,
2013-01-18 11:56:00,53.2,40.5,30.47,NNE,20,2.0,4.0,62,0.00,,---,0.00,VWS V14.01,2013-01-18 17:56:00,
2013-01-18 11:57:00,53.4,40.7,30.47,NE,53,2.0,6.0,62,0.00,,---,0.00,VWS V14.01,2013-01-18 17:57:00,
2013-01-18 11:58:00,53.4,40.7,30.47,NE,53,2.0,6.0,62,0.00,,---,0.00,VWS V14.01,2013-01-18 17:58:00,
2013-01-18 11:59:00,53.4,39.9,30.47,ESE,102,1.0,2.0,60,0.00,,---,0.00,VWS V14.01,2013-01-18 17:59:00,
2013-01-18 12:00:00,53.3,39.8,30.47,ENE,68,4.0,4.0,60,0.00,,---,0.00,VWS V14.01,2013-01-18 18:00:00,
2013-01-18 12:01:00,53.1,39.6,30.47,SSE,152,1.0,3.0,60,0.00,,---,0.00,VWS V14.01,2013-01-18 18:01:00,
2013-01-18 12:02:00,53.0,39.9,30.47,ESE,122,1.0,2.0,61,0.00,,---,0.00,VWS V14.01,2013-01-18 18:02:00,
2013-01-18 12:03:00,53.0,39.9,30.47,ESE,122,1.0,2.0,61,0.00,,---,0.00,VWS V14.01,2013-01-18 18:03:00,
2013-01-18 12:04:00,53.0,39.9,30.47,ESE,123,1.0,1.0,61,0.00,,---,0.00,VWS V14.01,2013-01-18 18:04:00,
2013-01-18 12:05:00,53.1,40.0,30.47,NW,316,3.0,3.0,61,0.00,,---,0.00,VWS V14.01,2013-01-18 18:05:00,
2013-01-18 12:06:00,53.2,40.5,30.47,NNW,328,2.0,4.0,62,0.00,,---,0.00,VWS V14.01,2013-01-18 18:06:00,
2013-01-18 12:07:00,53.3,40.2,30.47,ENE,68,4.0,4.0,61,0.00,,---,0.00,VWS V14.01,2013-01-18 18:07:00,
2013-01-18 12:08:00,53.4,39.9,30.47,ENE,58,2.0,5.0,60,0.00,,---,0.00,VWS V14.01,2013-01-18 18:08:00,
2013-01-18 12:09:00,53.4,39.9,30.47,ENE,58,2.0,5.0,60,0.00,,---,0.00,VWS V14.01,2013-01-18 18:09:00,
2013-01-18 12:10:00,53.4,39.9,30.46,ESE,110,2.0,2.0,60,0.00,,---,0.00,VWS V14.01,2013-01-18 18:10:00,
2013-01-18 12:11:00,53.4,40.7,30.47,ENE,58,1.0,3.0,62,0.00,,---,0.00,VWS V14.01,2013-01-18 18:11:00,
2013-01-18 12:12:00,53.6,40.5,30.47,East,84,4.0,5.0,61,0.00,,---,0.00,VWS V14.01,2013-01-18 18:12:00,
2013-01-18 12:13:00,53.5,40.0,30.46,ENE,63,2.0,3.0,60,0.00,,---,0.00,VWS V14.01,2013-01-18 18:13:00,
2013-01-18 12:14:00,53.5,40.0,30.46,ENE,63,2.0,3.0,60,0.00,,---,0.00,VWS V14.01,2013-01-18 18:14:00,
2013-01-18 12:15:00,53.5,40.4,30.46,East,80,3.0,3.0,61,0.00,,---,0.00,VWS V14.01,2013-01-18 18:15:00,
2013-01-18 12:16:00,53.5,40.0,30.46,West,262,1.0,3.0,60,0.00,,---,0.00,VWS V14.01,2013-01-18 18:16:00,
2013-01-18 12:17:00,53.6,40.5,30.46,North,352,3.0,3.0,61,0.00,,---,0.00,VWS V14.01,2013-01-18 18:17:00,
2013-01-18 12:18:00,53.9,40.8,30.46,ENE,70,0.0,2.0,61,0.00,,---,0.00,VWS V14.01,2013-01-18 18:18:00,
2013-01-18 12:19:00,53.9,40.8,30.46,ENE,70,0.0,2.0,61,0.00,,---,0.00,VWS V14.01,2013-01-18 18:19:00,
2013-01-18 12:20:00,54.1,40.5,30.46,NE,53,1.0,1.0,60,0.00,,---,0.00,VWS V14.01,2013-01-18 18:20:00,
2013-01-18 12:21:00,54.2,40.6,30.46,East,82,2.0,2.0,60,0.00,,---,0.00,VWS V14.01,2013-01-18 18:21:00,
2013-01-18 12:22:00,54.2,40.6,30.46,East,87,2.0,5.0,60,0.00,,---,0.00,VWS V14.01,2013-01-18 18:22:00,
2013-01-18 12:23:00,54.1,40.5,30.46,ENE,65,3.0,5.0,60,0.00,,---,0.00,VWS V14.01,2013-01-18 18:23:00,
2013-01-18 12:24:00,54.1,40.5,30.46,ENE,65,3.0,5.0,60,0.00,,---,0.00,VWS V14.01,2013-01-18 18:24:00,
2013-01-18 12:25:00,54.1,40.5,30.46,North,11,1.0,3.0,60,0.00,,---,0.00,VWS V14.01,2013-01-18 18:25:00,
2013-01-18 12:26:00,54.2,40.6,30.46,NNE,12,1.0,1.0,60,0.00,,---,0.00,VWS V14.01,2013-01-18 18:26:00,
2013-01-18 12:27:00,54.2,40.2,30.46,ESE,120,1.0,1.0,59,0.00,,---,0.00,VWS V14.01,2013-01-18 18:27:00,
2013-01-18 12:28:00,54.2,40.2,30.46,ESE,111,1.0,2.0,59,0.00,,---,0.00,VWS V14.01,2013-01-18 18:28:00,
2013-01-18 12:29:00,54.5,40.9,30.45,SW,228,0.0,2.0,60,0.00,,---,0.00,VWS V14.01,2013-01-18 18:29:00,
2013-01-18 12:30:00,54.5,40.9,30.45,SW,228,0.0,2.0,60,0.00,,---,0.00,VWS V14.01,2013-01-18 18:30:00,
2013-01-18 12:31:00,54.6,41.0,30.45,NW,326,1.0,1.0,60,0.00,,---,0.00,VWS V14.01,2013-01-18 18:31:00,
2013-01-18 12:32:00,54.8,41.2,30.45,NW,316,3.0,3.0,60,0.00,,---,0.00,VWS V14.01,2013-01-18 18:32:00,
2013-01-18 12:33:00,55.0,41.0,30.45,NNW,348,2.0,3.0,59,0.00,,---,0.00,VWS V14.01,2013-01-18 18:33:00,
2013-01-18 12:34:00,55.3,40.8,30.45,NE,53,5.0,6.0,58,0.00,,---,0.00,VWS V14.01,2013-01-18 18:34:00,
2013-01-18 12:35:00,55.3,40.8,30.45,NE,53,5.0,6.0,58,0.00,,---,0.00,VWS V14.01,2013-01-18 18:35:00,
2013-01-18 12:36:00,55.2,40.2,30.45,East,83,2.0,5.0,57,0.00,,---,0.00,VWS V14.01,2013-01-18 18:36:00,
2013-01-18 12:37:00,55.0,40.1,30.45,ENE,60,1.0,5.0,57,0.00,,---,0.00,VWS V14.01,2013-01-18 18:37:00,
2013-01-18 12:38:00,55.0,41.0,30.45,NE,44,0.0,2.0,59,0.00,,---,0.00,VWS V14.01,2013-01-18 18:38:00,
2013-01-18 12:39:00,54.9,40.4,30.45,ESE,115,3.0,4.0,58,0.00,,---,0.00,VWS V14.01,2013-01-18 18:39:00,
2013-01-18 12:40:00,54.9,40.4,30.45,ESE,115,3.0,4.0,58,0.00,,---,0.00,VWS V14.01,2013-01-18 18:40:00,
2013-01-18 12:41:00,54.9,40.0,30.45,ENE,70,4.0,5.0,57,0.00,,---,0.00,VWS V14.01,2013-01-18 18:41:00,
2013-01-18 12:42:00,54.8,39.9,30.45,ESE,102,3.0,4.0,57,0.00,,---,0.00,VWS V14.01,2013-01-18 18:42:00,
2013-01-18 12:43:00,54.7,40.2,30.45,SE,146,2.0,3.0,58,0.00,,---,0.00,VWS V14.01,2013-01-18 18:43:00,
2013-01-18 12:44:00,54.7,40.2,30.44,SE,125,0.0,1.0,58,0.00,,---,0.00,VWS V14.01,2013-01-18 18:44:00,
2013-01-18 12:45:00,54.7,40.2,30.44,SE,125,0.0,1.0,58,0.00,,---,0.00,VWS V14.01,2013-01-18 18:45:00,
2013-01-18 12:46:00,54.8,40.8,30.45,East,90,2.0,2.0,59,0.00,,---,0.00,VWS V14.01,2013-01-18 18:46:00,
2013-01-18 12:47:00,54.9,40.9,30.44,NW,319,1.0,3.0,59,0.00,,---,0.00,VWS V14.01,2013-01-18 18:47:00,
2013-01-18 12:48:00,55.0,41.0,30.44,NE,51,1.0,1.0,59,0.00,,---,0.00,VWS V14.01,2013-01-18 18:48:00,
2013-01-18 12:49:00,55.1,40.2,30.44,ENE,77,3.0,7.0,57,0.00,,---,0.00,VWS V14.01,2013-01-18 18:49:00,
2013-01-18 12:50:00,55.1,40.2,30.44,ENE,77,3.0,7.0,57,0.00,,---,0.00,VWS V14.01,2013-01-18 18:50:00,
2013-01-18 12:51:00,55.2,40.7,30.44,NE,55,1.0,3.0,58,0.00,,---,0.00,VWS V14.01,2013-01-18 18:51:00,
2013-01-18 12:52:00,55.2,40.2,30.44,East,89,2.0,2.0,57,0.00,,---,0.00,VWS V14.01,2013-01-18 18:52:00,
2013-01-18 12:53:00,55.2,40.2,30.44,East,101,0.0,2.0,57,0.00,,---,0.00,VWS V14.01,2013-01-18 18:53:00,
2013-01-18 12:54:00,55.3,40.3,30.44,NW,322,1.0,3.0,57,0.00,,---,0.00,VWS V14.01,2013-01-18 18:54:00,
2013-01-18 12:55:00,55.3,40.3,30.44,NW,322,1.0,3.0,57,0.00,,---,0.00,VWS V14.01,2013-01-18 18:55:00,
2013-01-18 12:56:00,55.3,40.3,30.44,WNW,302,2.0,2.0,57,0.00,,---,0.00,VWS V14.01,2013-01-18 18:56:00,
2013-01-18 12:57:00,55.3,40.8,30.44,NW,322,1.0,2.0,58,0.00,,---,0.00,VWS V14.01,2013-01-18 18:57:00,
2013-01-18 12:58:00,55.4,40.4,30.44,NW,319,1.0,2.0,57,0.00,,---,0.00,VWS V14.01,2013-01-18 18:58:00,
2013-01-18 12:59:00,55.5,40.5,30.44,NNW,345,3.0,6.0,57,0.00,,---,0.00,VWS V14.01,2013-01-18 18:59:00,
2013-01-18 13:00:00,55.5,40.5,30.44,NNW,345,3.0,6.0,57,0.00,,---,0.00,VWS V14.01,2013-01-18 19:00:00,
2013-01-18 13:01:00,55.6,40.2,30.44,ENE,65,7.0,8.0,56,0.00,,---,0.00,VWS V14.01,2013-01-18 19:01:00,
2013-01-18 13:02:00,55.5,39.6,30.44,NNE,32,3.0,10.0,55,0.00,,---,0.00,VWS V14.01,2013-01-18 19:02:00,
2013-01-18 13:03:00,55.5,40.1,30.44,NW,325,1.0,5.0,56,0.00,,---,0.00,VWS V14.01,2013-01-18 19:03:00,
2013-01-18 13:04:00,55.7,40.7,30.44,NE,41,4.0,5.0,57,0.00,,---,0.00,VWS V14.01,2013-01-18 19:04:00,
2013-01-18 13:05:00,55.7,40.7,30.44,NE,41,4.0,5.0,57,0.00,,---,0.00,VWS V14.01,2013-01-18 19:05:00,
2013-01-18 13:06:00,55.7,39.8,30.44,ENE,73,4.0,5.0,55,0.00,,---,0.00,VWS V14.01,2013-01-18 19:06:00,
2013-01-18 13:07:00,55.7,39.3,30.44,ENE,61,3.0,4.0,54,0.00,,---,0.00,VWS V14.01,2013-01-18 19:07:00,
2013-01-18 13:08:00,55.5,39.1,30.43,ENE,75,3.0,6.0,54,0.00,,---,0.00,VWS V14.01,2013-01-18 19:08:00,
2013-01-18 13:09:00,55.4,39.5,30.43,NNW,330,3.0,4.0,55,0.00,,---,0.00,VWS V14.01,2013-01-18 19:09:00,
2013-01-18 13:10:00,55.4,39.5,30.43,NNW,330,3.0,4.0,55,0.00,,---,0.00,VWS V14.01,2013-01-18 19:10:00,
2013-01-18 13:11:00,55.5,39.6,30.43,North,356,2.0,5.0,55,0.00,,---,0.00,VWS V14.01,2013-01-18 19:11:00,
2013-01-18 13:12:00,55.5,40.1,30.43,ENE,70,1.0,3.0,56,0.00,,---,0.00,VWS V14.01,2013-01-18 19:12:00,
2013-01-18 13:13:00,55.7,40.3,30.43,NNW,338,2.0,2.0,56,0.00,,---,0.00,VWS V14.01,2013-01-18 19:13:00,
2013-01-18 13:14:00,55.9,40.0,30.43,WNW,291,2.0,5.0,55,0.00,,---,0.00,VWS V14.01,2013-01-18 19:14:00,
2013-01-18 13:15:00,55.9,40.0,30.43,WNW,291,2.0,5.0,55,0.00,,---,0.00,VWS V14.01,2013-01-18 19:15:00,
2013-01-18 13:16:00,55.9,40.0,30.43,NNW,341,1.0,2.0,55,0.00,,---,0.00,VWS V14.01,2013-01-18 19:16:00,
2013-01-18 13:17:00,55.9,40.0,30.43,North,358,4.0,5.0,55,0.00,,---,0.00,VWS V14.01,2013-01-18 19:17:00,
2013-01-18 13:18:00,56.1,40.6,30.43,North,6,1.0,4.0,56,0.00,,---,0.00,VWS V14.01,2013-01-18 19:18:00,
2013-01-18 13:19:00,56.3,40.4,30.43,NNW,334,2.0,3.0,55,0.00,,---,0.00,VWS V14.01,2013-01-18 19:19:00,
2013-01-18 13:20:00,56.3,40.4,30.43,NNW,334,2.0,3.0,55,0.00,,---,0.00,VWS V14.01,2013-01-18 19:20:00,
2013-01-18 13:21:00,56.4,40.5,30.43,NNW,348,2.0,3.0,55,0.00,,---,0.00,VWS V14.01,2013-01-18 19:21:00,
2013-01-18 13:22:00,56.5,40.5,30.43,NW,319,0.0,2.0,55,0.00,,---,0.00,VWS V14.01,2013-01-18 19:22:00,
2013-01-18 13:23:00,56.5,40.5,30.43,North,9,1.0,1.0,55,0.00,,---,0.00,VWS V14.01,2013-01-18 19:23:00,
2013-01-18 13:24:00,56.5,40.5,30.43,East,84,0.0,1.0,55,0.00,,---,0.00,VWS V14.01,2013-01-18 19:24:00,
2013-01-18 13:25:00,56.6,40.2,30.43,NE,53,4.0,4.0,54,0.00,,---,0.00,VWS V14.01,2013-01-18 19:25:00,
2013-01-18 13:26:00,56.6,40.2,30.43,NE,53,4.0,4.0,54,0.00,,---,0.00,VWS V14.01,2013-01-18 19:26:00,
2013-01-18 13:27:00,56.7,39.8,30.43,ENE,68,6.0,6.0,53,0.00,,---,0.00,VWS V14.01,2013-01-18 19:27:00,
2013-01-18 13:28:00,56.7,39.8,30.43,ENE,75,4.0,6.0,53,0.00,,---,0.00,VWS V14.01,2013-01-18 19:28:00,
2013-01-18 13:29:00,56.7,39.8,30.43,ESE,118,2.0,4.0,53,0.00,,---,0.00,VWS V14.01,2013-01-18 19:29:00,
2013-01-18 13:30:00,56.7,39.8,30.42,SE,138,3.0,7.0,53,0.00,,---,0.00,VWS V14.01,2013-01-18 19:30:00,
2013-01-18 13:31:00,56.7,39.8,30.42,SE,138,3.0,7.0,53,0.00,,---,0.00,VWS V14.01,2013-01-18 19:31:00,
2013-01-18 13:32:00,56.7,39.3,30.42,East,94,1.0,3.0,52,0.00,,---,0.00,VWS V14.01,2013-01-18 19:32:00,
2013-01-18 13:33:00,56.7,39.8,30.43,ENE,64,2.0,5.0,53,0.00,,---,0.00,VWS V14.01,2013-01-18 19:33:00,
2013-01-18 13:34:00,56.7,39.8,30.42,ENE,78,3.0,6.0,53,0.00,,---,0.00,VWS V14.01,2013-01-18 19:34:00,
2013-01-18 13:35:00,56.6,39.7,30.42,ENE,58,2.0,7.0,53,0.00,,---,0.00,VWS V14.01,2013-01-18 19:35:00,
2013-01-18 13:36:00,56.6,39.7,30.42,ENE,58,2.0,7.0,53,0.00,,---,0.00,VWS V14.01,2013-01-18 19:36:00,
2013-01-18 13:37:00,56.6,39.7,30.42,NE,55,1.0,4.0,53,0.00,,---,0.00,VWS V14.01,2013-01-18 19:37:00,
2013-01-18 13:38:00,56.6,40.2,30.42,NNE,16,3.0,4.0,54,0.00,,---,0.00,VWS V14.01,2013-01-18 19:38:00,
2013-01-18 13:39:00,56.7,39.8,30.42,NE,55,3.0,4.0,53,0.00,,---,0.00,VWS V14.01,2013-01-18 19:39:00,
2013-01-18 13:40:00,56.6,39.2,30.42,East,82,3.0,5.0,52,0.00,,---,0.00,VWS V14.01,2013-01-18 19:40:00,
2013-01-18 13:41:00,56.6,39.2,30.42,East,82,3.0,5.0,52,0.00,,---,0.00,VWS V14.01,2013-01-18 19:41:00,
2013-01-18 13:42:00,56.6,39.7,30.42,East,79,3.0,5.0,53,0.00,,---,0.00,VWS V14.01,2013-01-18 19:42:00,
2013-01-18 13:43:00,56.6,39.7,30.42,East,80,2.0,4.0,53,0.00,,---,0.00,VWS V14.01,2013-01-18 19:43:00,
2013-01-18 13:44:00,56.7,40.3,30.42,East,98,3.0,4.0,54,0.00,,---,0.00,VWS V14.01,2013-01-18 19:44:00,
2013-01-18 13:45:00,57.0,41.0,30.42,North,10,0.0,2.0,55,0.00,,---,0.00,VWS V14.01,2013-01-18 19:45:00,
2013-01-18 13:46:00,57.0,41.0,30.42,North,10,0.0,2.0,55,0.00,,---,0.00,VWS V14.01,2013-01-18 19:46:00,
2013-01-18 13:47:00,57.1,40.6,30.42,NE,41,2.0,2.0,54,0.00,,---,0.00,VWS V14.01,2013-01-18 19:47:00,
2013-01-18 13:48:00,57.3,40.8,30.42,ENE,71,3.0,4.0,54,0.00,,---,0.00,VWS V14.01,2013-01-18 19:48:00,
2013-01-18 13:49:00,57.3,40.3,30.42,ENE,61,1.0,3.0,53,0.00,,---,0.00,VWS V14.01,2013-01-18 19:49:00,
2013-01-18 13:50:00,57.4,39.9,30.42,ENE,73,5.0,7.0,52,0.00,,---,0.00,VWS V14.01,2013-01-18 19:50:00,
2013-01-18 13:51:00,57.4,39.9,30.42,ENE,73,5.0,7.0,52,0.00,,---,0.00,VWS V14.01,2013-01-18 19:51:00,
2013-01-18 13:52:00,57.4,39.9,30.42,NNE,17,2.0,5.0,52,0.00,,---,0.00,VWS V14.01,2013-01-18 19:52:00,
2013-01-18 13:53:00,57.4,39.9,30.42,ENE,65,5.0,7.0,52,0.00,,---,0.00,VWS V14.01,2013-01-18 19:53:00,
2013-01-18 13:54:00,57.4,39.9,30.42,SE,124,1.0,5.0,52,0.00,,---,0.00,VWS V14.01,2013-01-18 19:54:00,
2013-01-18 13:55:00,57.5,40.5,30.42,East,84,5.0,5.0,53,0.00,,---,0.00,VWS V14.01,2013-01-18 19:55:00,
2013-01-18 13:56:00,57.5,40.5,30.42,East,84,5.0,5.0,53,0.00,,---,0.00,VWS V14.01,2013-01-18 19:56:00,
2013-01-18 13:57:00,57.5,39.0,30.42,ENE,73,6.0,8.0,50,0.00,,---,0.00,VWS V14.01,2013-01-18 19:57:00,
2013-01-18 13:58:00,57.4,38.9,30.42,ENE,73,3.0,6.0,50,0.00,,---,0.00,VWS V14.01,2013-01-18 19:58:00,
2013-01-18 13:59:00,57.3,39.3,30.42,East,79,2.0,5.0,51,0.00,,---,0.00,VWS V14.01,2013-01-18 19:59:00,
2013-01-18 14:00:00,57.3,39.3,30.42,ENE,77,5.0,5.0,51,0.00,,---,0.00,VWS V14.01,2013-01-18 20:00:00,
2013-01-18 14:01:00,57.4,39.4,30.42,NNE,32,1.0,4.0,51,0.00,,---,0.00,VWS V14.01,2013-01-18 20:01:00,
2013-01-18 14:02:00,57.4,39.4,30.42,NNE,32,1.0,4.0,51,0.00,,---,0.00,VWS V14.01,2013-01-18 20:02:00,
2013-01-18 14:03:00,57.5,40.0,30.42,NNE,32,0.0,2.0,52,0.00,,---,0.00,VWS V14.01,2013-01-18 20:03:00,
2013-01-18 14:04:00,57.5,40.0,30.42,ENE,63,1.0,2.0,52,0.00,,---,0.00,VWS V14.01,2013-01-18 20:04:00,
2013-01-18 14:05:00,57.6,40.6,30.42,NW,324,2.0,3.0,53,0.00,,---,0.00,VWS V14.01,2013-01-18 20:05:00,
2013-01-18 14:06:00,57.8,39.8,30.42,NNW,331,3.0,4.0,51,0.00,,---,0.00,VWS V14.01,2013-01-18 20:06:00,
2013-01-18 14:07:00,57.8,39.8,30.42,NNW,331,3.0,4.0,51,0.00,,---,0.00,VWS V14.01,2013-01-18 20:07:00,
2013-01-18 14:08:00,57.8,39.8,30.42,NNE,30,2.0,3.0,51,0.00,,---,0.00,VWS V14.01,2013-01-18 20:08:00,
2013-01-18 14:09:00,57.9,40.9,30.41,NNW,348,2.0,3.0,53,0.00,,---,0.00,VWS V14.01,2013-01-18 20:09:00,
2013-01-18 14:10:00,57.9,39.9,30.41,NW,316,1.0,3.0,51,0.00,,---,0.00,VWS V14.01,2013-01-18 20:10:00,
2013-01-18 14:11:00,57.9,39.9,30.41,North,11,1.0,3.0,51,0.00,,---,0.00,VWS V14.01,2013-01-18 20:11:00,
2013-01-18 14:12:00,57.9,39.9,30.41,North,11,1.0,3.0,51,0.00,,---,0.00,VWS V14.01,2013-01-18 20:12:00,
2013-01-18 14:13:00,57.9,39.9,30.41,North,8,1.0,5.0,51,0.00,,---,0.00,VWS V14.01,2013-01-18 20:13:00,
2013-01-18 14:14:00,57.9,39.4,30.41,ENE,77,5.0,5.0,50,0.00,,---,0.00,VWS V14.01,2013-01-18 20:14:00,
2013-01-18 14:15:00,57.9,38.3,30.41,ENE,65,1.0,8.0,48,0.00,,---,0.00,VWS V14.01,2013-01-18 20:15:00,
2013-01-18 14:16:00,57.9,39.4,30.41,North,354,3.0,3.0,50,0.00,,---,0.00,VWS V14.01,2013-01-18 20:16:00,
2013-01-18 14:17:00,57.9,37.8,30.41,NE,39,4.0,4.0,47,0.00,,---,0.00,VWS V14.01,2013-01-18 20:17:00,
2013-01-18 14:18:00,57.9,37.8,30.41,NE,39,4.0,4.0,47,0.00,,---,0.00,VWS V14.01,2013-01-18 20:18:00,
2013-01-18 14:19:00,57.8,38.3,30.41,ENE,65,6.0,6.0,48,0.00,,---,0.00,VWS V14.01,2013-01-18 20:19:00,
2013-01-18 14:20:00,57.9,39.9,30.41,ENE,74,0.0,6.0,51,0.00,,---,0.00,VWS V14.01,2013-01-18 20:20:00,
2013-01-18 14:21:00,58.0,40.0,30.41,East,101,3.0,3.0,51,0.00,,---,0.00,VWS V14.01,2013-01-18 20:21:00,
2013-01-18 14:22:00,58.1,39.6,30.41,North,354,1.0,3.0,50,0.00,,---,0.00,VWS V14.01,2013-01-18 20:22:00,
2013-01-18 14:23:00,58.1,39.6,30.41,North,354,1.0,3.0,50,0.00,,---,0.00,VWS V14.01,2013-01-18 20:23:00,
2013-01-18 14:24:00,58.1,40.1,30.41,East,85,2.0,3.0,51,0.00,,---,0.00,VWS V14.01,2013-01-18 20:24:00,
2013-01-18 14:25:00,58.2,39.2,30.41,NNW,338,2.0,4.0,49,0.00,,---,0.00,VWS V14.01,2013-01-18 20:25:00,
2013-01-18 14:26:00,58.1,39.1,30.41,NNW,343,1.0,2.0,49,0.00,,---,0.00,VWS V14.01,2013-01-18 20:26:00,
2013-01-18 14:27:00,58.1,39.1,30.41,WSW,253,1.0,3.0,49,0.00,,---,0.00,VWS V14.01,2013-01-18 20:27:00,
2013-01-18 14:28:00,58.2,39.7,30.41,East,79,2.0,4.0,50,0.00,,---,0.00,VWS V14.01,2013-01-18 20:28:00,
2013-01-18 14:29:00,58.2,39.7,30.41,East,79,2.0,4.0,50,0.00,,---,0.00,VWS V14.01,2013-01-18 20:29:00,
2013-01-18 14:30:00,58.2,39.7,30.41,ENE,61,3.0,5.0,50,0.00,,---,0.00,VWS V14.01,2013-01-18 20:30:00,
2013-01-18 14:31:00,58.2,39.2,30.41,ENE,66,2.0,5.0,49,0.00,,---,0.00,VWS V14.01,2013-01-18 20:31:00,
2013-01-18 14:32:00,58.1,39.1,30.41,East,89,1.0,2.0,49,0.00,,---,0.00,VWS V14.01,2013-01-18 20:32:00,
2013-01-18 14:33:00,58.0,39.0,30.41,ENE,73,2.0,6.0,49,0.00,,---,0.00,VWS V14.01,2013-01-18 20:33:00,
2013-01-18 14:34:00,58.0,39.0,30.41,ENE,73,2.0,6.0,49,0.00,,---,0.00,VWS V14.01,2013-01-18 20:34:00,
2013-01-18 14:35:00,58.0,39.0,30.41,ENE,71,3.0,3.0,49,0.00,,---,0.00,VWS V14.01,2013-01-18 20:35:00,
2013-01-18 14:36:00,58.1,39.6,30.41,ENE,68,3.0,4.0,50,0.00,,---,0.00,VWS V14.01,2013-01-18 20:36:00,
2013-01-18 14:37:00,58.1,39.1,30.41,ENE,66,4.0,6.0,49,0.00,,---,0.00,VWS V14.01,2013-01-18 20:37:00,
2013-01-18 14:38:00,58.0,39.0,30.41,ENE,73,4.0,6.0,49,0.00,,---,0.00,VWS V14.01,2013-01-18 20:38:00,
2013-01-18 14:39:00,58.0,39.0,30.41,ENE,73,4.0,6.0,49,0.00,,---,0.00,VWS V14.01,2013-01-18 20:39:00,
2013-01-18 14:40:00,58.1,38.5,30.41,NE,55,3.0,4.0,48,0.00,,---,0.00,VWS V14.01,2013-01-18 20:40:00,
2013-01-18 14:41:00,58.1,38.5,30.41,ENE,77,1.0,3.0,48,0.00,,---,0.00,VWS V14.01,2013-01-18 20:41:00,
2013-01-18 14:42:00,58.1,38.5,30.41,East,79,2.0,3.0,48,0.00,,---,0.00,VWS V14.01,2013-01-18 20:42:00,
2013-01-18 14:43:00,58.2,38.6,30.40,NNW,336,1.0,3.0,48,0.00,,---,0.00,VWS V14.01,2013-01-18 20:43:00,
2013-01-18 14:44:00,58.2,38.6,30.40,NNW,336,1.0,3.0,48,0.00,,---,0.00,VWS V14.01,2013-01-18 20:44:00,
2013-01-18 14:45:00,58.3,38.7,30.40,East,79,5.0,6.0,48,0.00,,---,0.00,VWS V14.01,2013-01-18 20:45:00,
2013-01-18 14:46:00,58.2,37.5,30.40,NNW,336,2.0,6.0,46,0.00,,---,0.00,VWS V14.01,2013-01-18 20:46:00,
2013-01-18 14:47:00,58.2,38.1,30.40,ENE,58,1.0,3.0,47,0.00,,---,0.00,VWS V14.01,2013-01-18 20:47:00,
2013-01-18 14:48:00,58.3,38.2,30.40,ENE,63,3.0,5.0,47,0.00,,---,0.00,VWS V14.01,2013-01-18 20:48:00,
2013-01-18 14:49:00,58.3,38.2,30.40,ENE,63,3.0,5.0,47,0.00,,---,0.00,VWS V14.01,2013-01-18 20:49:00,
2013-01-18 14:50:00,58.3,38.2,30.40,East,101,2.0,3.0,47,0.00,,---,0.00,VWS V14.01,2013-01-18 20:50:00,
2013-01-18 14:51:00,58.4,38.3,30.40,North,9,1.0,3.0,47,0.00,,---,0.00,VWS V14.01,2013-01-18 20:51:00,
2013-01-18 14:52:00,58.4,38.8,30.40,ENE,70,4.0,6.0,48,0.00,,---,0.00,VWS V14.01,2013-01-18 20:52:00,
2013-01-18 14:53:00,58.4,38.8,30.40,ENE,71,4.0,5.0,48,0.00,,---,0.00,VWS V14.01,2013-01-18 20:53:00,
2013-01-18 14:54:00,58.2,38.6,30.40,SE,139,1.0,3.0,48,0.00,,---,0.00,VWS V14.01,2013-01-18 20:54:00,
2013-01-18 14:55:00,58.2,38.6,30.40,SE,139,1.0,3.0,48,0.00,,---,0.00,VWS V14.01,2013-01-18 20:55:00,
2013-01-18 14:56:00,58.1,38.5,30.40,ENE,63,6.0,6.0,48,0.00,,---,0.00,VWS V14.01,2013-01-18 20:56:00,
2013-01-18 14:57:00,58.1,39.1,30.40,ENE,58,0.0,6.0,49,0.00,,---,0.00,VWS V14.01,2013-01-18 20:57:00,
2013-01-18 14:58:00,58.1,39.6,30.40,ESE,108,0.0,1.0,50,0.00,,---,0.00,VWS V14.01,2013-01-18 20:58:00,
2013-01-18 14:59:00,58.4,38.8,30.40,East,101,2.0,2.0,48,0.00,,---,0.00,VWS V14.01,2013-01-18 20:59:00,
2013-01-18 15:00:00,58.4,38.8,30.40,East,101,2.0,2.0,48,0.00,,---,0.00,VWS V14.01,2013-01-18 21:00:00,
2013-01-18 15:01:00,58.5,38.9,30.40,ENE,73,4.0,6.0,48,0.00,,---,0.00,VWS V14.01,2013-01-18 21:01:00,
2013-01-18 15:02:00,58.5,38.4,30.40,NE,56,4.0,6.0,47,0.00,,---,0.00,VWS V14.01,2013-01-18 21:02:00,
2013-01-18 15:04:00,58.3,37.6,30.40,ENE,58,2.0,8.0,46,0.00,,---,0.00,VWS V14.01,2013-01-18 21:04:00,
2013-01-18 15:05:00,58.1,36.9,30.40,NE,53,1.0,4.0,45,0.00,,---,0.00,VWS V14.01,2013-01-18 21:05:00,
2013-01-18 15:06:00,58.1,36.9,30.40,NE,53,1.0,4.0,45,0.00,,---,0.00,VWS V14.01,2013-01-18 21:06:00,
2013-01-18 15:07:00,58.0,37.4,30.40,NE,42,0.0,2.0,46,0.00,,---,0.00,VWS V14.01,2013-01-18 21:07:00,
2013-01-18 15:08:00,58.1,38.0,30.40,East,94,4.0,4.0,47,0.00,,---,0.00,VWS V14.01,2013-01-18 21:08:00,
2013-01-18 15:09:00,58.1,36.9,30.40,East,99,2.0,4.0,45,0.00,,---,0.00,VWS V14.01,2013-01-18 21:09:00,
2013-01-18 15:10:00,58.1,37.5,30.40,East,95,2.0,3.0,46,0.00,,---,0.00,VWS V14.01,2013-01-18 21:10:00,
2013-01-18 15:11:00,58.2,38.1,30.40,NE,44,0.0,1.0,47,0.00,,---,0.00,VWS V14.01,2013-01-18 21:11:00,
2013-01-18 15:12:00,58.2,38.1,30.40,NE,44,0.0,1.0,47,0.00,,---,0.00,VWS V14.01,2013-01-18 21:12:00,
2013-01-18 15:13:00,58.3,37.6,30.40,NNW,335,1.0,2.0,46,0.00,,---,0.00,VWS V14.01,2013-01-18 21:13:00,
2013-01-18 15:14:00,58.4,38.3,30.40,ENE,75,1.0,1.0,47,0.00,,---,0.00,VWS V14.01,2013-01-18 21:14:00,
2013-01-18 15:15:00,58.5,37.8,30.40,ENE,60,4.0,7.0,46,0.00,,---,0.00,VWS V14.01,2013-01-18 21:15:00,
2013-01-18 15:16:00,58.4,38.3,30.40,NNE,26,1.0,5.0,47,0.00,,---,0.00,VWS V14.01,2013-01-18 21:16:00,
2013-01-18 15:17:00,58.4,38.3,30.40,NNE,26,1.0,5.0,47,0.00,,---,0.00,VWS V14.01,2013-01-18 21:17:00,
2013-01-18 15:18:00,58.3,38.7,30.40,ENE,65,4.0,5.0,48,0.00,,---,0.00,VWS V14.01,2013-01-18 21:18:00,
2013-01-18 15:19:00,58.3,38.7,30.40,East,91,5.0,5.0,48,0.00,,---,0.00,VWS V14.01,2013-01-18 21:19:00,
2013-01-18 15:20:00,58.3,38.2,30.40,ENE,70,7.0,9.0,47,0.00,,---,0.00,VWS V14.01,2013-01-18 21:20:00,
2013-01-18 15:21:00,58.0,38.4,30.40,NE,56,1.0,2.0,48,0.00,,---,0.00,VWS V14.01,2013-01-18 21:21:00,
2013-01-18 15:22:00,58.0,38.4,30.40,NE,56,1.0,2.0,48,0.00,,---,0.00,VWS V14.01,2013-01-18 21:22:00,
2013-01-18 15:23:00,58.0,38.4,30.40,NW,319,3.0,3.0,48,0.00,,---,0.00,VWS V14.01,2013-01-18 21:23:00,
2013-01-18 15:24:00,58.0,39.0,30.40,NE,39,2.0,3.0,49,0.00,,---,0.00,VWS V14.01,2013-01-18 21:24:00,
2013-01-18 15:25:00,58.0,38.4,30.40,NW,321,1.0,2.0,48,0.00,,---,0.00,VWS V14.01,2013-01-18 21:25:00,
2013-01-18 15:26:00,58.2,38.1,30.40,NW,326,3.0,3.0,47,0.00,,---,0.00,VWS V14.01,2013-01-18 21:26:00,
2013-01-18 15:27:00,58.2,38.1,30.40,NW,326,3.0,3.0,47,0.00,,---,0.00,VWS V14.01,2013-01-18 21:27:00,
2013-01-18 15:28:00,58.2,38.1,30.40,NNW,336,2.0,3.0,47,0.00,,---,0.00,VWS V14.01,2013-01-18 21:28:00,
2013-01-18 15:29:00,58.2,37.5,30.40,NNW,330,1.0,3.0,46,0.00,,---,0.00,VWS V14.01,2013-01-18 21:29:00,
2013-01-18 15:30:00,58.3,37.6,30.40,NW,307,4.0,4.0,46,0.00,,---,0.00,VWS V14.01,2013-01-18 21:30:00,
2013-01-18 15:31:00,58.2,37.0,30.40,NNW,329,0.0,4.0,45,0.00,,---,0.00,VWS V14.01,2013-01-18 21:31:00,
2013-01-18 15:32:00,58.2,37.0,30.40,NNW,329,0.0,4.0,45,0.00,,---,0.00,VWS V14.01,2013-01-18 21:32:00,
2013-01-18 15:33:00,58.1,37.5,30.40,NNW,346,2.0,2.0,46,0.00,,---,0.00,VWS V14.01,2013-01-18 21:33:00,
2013-01-18 15:34:00,58.1,36.9,30.40,North,352,1.0,3.0,45,0.00,,---,0.00,VWS V14.01,2013-01-18 21:34:00,
2013-01-18 15:35:00,58.1,36.9,30.40,NE,56,2.0,3.0,45,0.00,,---,0.00,VWS V14.01,2013-01-18 21:35:00,
2013-01-18 15:36:00,58.1,36.9,30.40,NE,55,2.0,6.0,45,0.00,,---,0.00,VWS V14.01,2013-01-18 21:36:00,
2013-01-18 15:37:00,58.2,37.0,30.41,ENE,71,1.0,1.0,45,0.00,,---,0.00,VWS V14.01,2013-01-18 21:37:00,
2013-01-18 15:38:00,58.2,37.0,30.41,ENE,71,1.0,1.0,45,0.00,,---,0.00,VWS V14.01,2013-01-18 21:38:00,
2013-01-18 15:39:00,58.3,37.6,30.41,East,85,1.0,2.0,46,0.00,,---,0.00,VWS V14.01,2013-01-18 21:39:00,
2013-01-18 15:40:00,58.4,37.2,30.41,East,82,1.0,1.0,45,0.00,,---,0.00,VWS V14.01,2013-01-18 21:40:00,
2013-01-18 15:41:00,58.5,37.8,30.41,ENE,63,1.0,1.0,46,0.00,,---,0.00,VWS V14.01,2013-01-18 21:41:00,
2013-01-18 15:42:00,58.6,37.9,30.41,NNE,19,2.0,4.0,46,0.00,,---,0.00,VWS V14.01,2013-01-18 21:42:00,
2013-01-18 15:43:00,58.6,37.3,30.41,North,355,0.0,2.0,45,0.00,,---,0.00,VWS V14.01,2013-01-18 21:43:00,
2013-01-18 15:44:00,58.6,37.3,30.41,North,355,0.0,2.0,45,0.00,,---,0.00,VWS V14.01,2013-01-18 21:44:00,
2013-01-18 15:46:00,58.6,36.8,30.41,North,349,0.0,4.0,44,0.00,,---,0.00,VWS V14.01,2013-01-18 21:46:00,
2013-01-18 15:47:00,58.6,37.3,30.41,NW,316,1.0,2.0,45,0.00,,---,0.00,VWS V14.01,2013-01-18 21:47:00,
2013-01-18 15:48:00,58.6,37.3,30.41,North,350,1.0,2.0,45,0.00,,---,0.00,VWS V14.01,2013-01-18 21:48:00,
2013-01-18 15:50:00,58.5,37.8,30.40,North,353,0.0,2.0,46,0.00,,---,0.00,VWS V14.01,2013-01-18 21:50:00,
2013-01-18 15:51:00,58.5,37.8,30.41,NE,36,0.0,1.0,46,0.00,,---,0.00,VWS V14.01,2013-01-18 21:51:00,
2013-01-18 15:52:00,58.6,37.9,30.41,North,1,1.0,2.0,46,0.00,,---,0.00,VWS V14.01,2013-01-18 21:52:00,
2013-01-18 15:53:00,58.6,36.8,30.41,East,89,2.0,3.0,44,0.00,,---,0.00,VWS V14.01,2013-01-18 21:53:00,
2013-01-18 15:54:00,58.6,36.8,30.41,East,89,2.0,3.0,44,0.00,,---,0.00,VWS V14.01,2013-01-18 21:54:00,
2013-01-18 15:55:00,58.6,37.9,30.40,NNE,32,0.0,2.0,46,0.00,,---,0.00,VWS V14.01,2013-01-18 21:55:00,
2013-01-18 15:57:00,58.6,37.3,30.40,North,354,0.0,3.0,45,0.00,,---,0.00,VWS V14.01,2013-01-18 21:57:00,
2013-01-18 15:58:00,58.6,37.3,30.41,NNW,340,2.0,2.0,45,0.00,,---,0.00,VWS V14.01,2013-01-18 21:58:00,
2013-01-18 15:59:00,58.5,37.2,30.41,East,94,3.0,4.0,45,0.00,,---,0.00,VWS V14.01,2013-01-18 21:59:00,
2013-01-18 16:00:00,58.5,37.2,30.41,East,94,3.0,4.0,45,0.00,,---,0.00,VWS V14.01,2013-01-18 22:00:00,
2013-01-18 16:01:00,58.4,37.2,30.41,East,79,1.0,4.0,45,0.00,,---,0.00,VWS V14.01,2013-01-18 22:01:00,
2013-01-18 16:02:00,58.4,37.2,30.40,East,79,1.0,1.0,45,0.00,,---,0.00,VWS V14.01,2013-01-18 22:02:00,
2013-01-18 16:03:00,58.4,37.7,30.40,North,353,2.0,2.0,46,0.00,,---,0.00,VWS V14.01,2013-01-18 22:03:00,
2013-01-18 16:04:00,58.3,36.5,30.40,NW,309,3.0,3.0,44,0.00,,---,0.00,VWS V14.01,2013-01-18 22:04:00,
2013-01-18 16:05:00,58.3,36.5,30.40,NW,309,3.0,3.0,44,0.00,,---,0.00,VWS V14.01,2013-01-18 22:05:00,
2013-01-18 16:06:00,58.2,36.4,30.40,NNW,331,1.0,4.0,44,0.00,,---,0.00,VWS V14.01,2013-01-18 22:06:00,
2013-01-18 16:07:00,58.2,36.4,30.40,NNW,331,1.0,1.0,44,0.00,,---,0.00,VWS V14.01,2013-01-18 22:07:00,
2013-01-18 16:08:00,58.1,36.3,30.40,East,79,4.0,6.0,44,0.00,,---,0.00,VWS V14.01,2013-01-18 22:08:00,
2013-01-18 16:09:00,58.0,36.8,30.40,NNW,340,1.0,2.0,45,0.00,,---,0.00,VWS V14.01,2013-01-18 22:09:00,
2013-01-18 16:10:00,58.0,36.8,30.40,NNW,340,1.0,2.0,45,0.00,,---,0.00,VWS V14.01,2013-01-18 22:10:00,
2013-01-18 16:11:00,58.0,36.8,30.40,East,79,3.0,3.0,45,0.00,,---,0.00,VWS V14.01,2013-01-18 22:11:00,
2013-01-18 16:12:00,58.0,36.8,30.40,NNW,335,1.0,3.0,45,0.00,,---,0.00,VWS V14.01,2013-01-18 22:12:00,
2013-01-18 16:13:00,58.0,36.2,30.40,NE,52,1.0,4.0,44,0.00,,---,0.00,VWS V14.01,2013-01-18 22:13:00,
2013-01-18 16:14:00,57.9,36.7,30.40,East,87,2.0,3.0,45,0.00,,---,0.00,VWS V14.01,2013-01-18 22:14:00,
2013-01-18 16:15:00,57.9,36.7,30.40,East,87,2.0,3.0,45,0.00,,---,0.00,VWS V14.01,2013-01-18 22:15:00,
2013-01-18 16:16:00,57.8,36.6,30.40,NNW,348,0.0,4.0,45,0.00,,---,0.00,VWS V14.01,2013-01-18 22:16:00,
2013-01-18 16:17:00,57.8,37.2,30.40,NNW,348,1.0,1.0,46,0.00,,---,0.00,VWS V14.01,2013-01-18 22:17:00,
2013-01-18 16:18:00,57.8,37.7,30.40,NNW,348,0.0,1.0,47,0.00,,---,0.00,VWS V14.01,2013-01-18 22:18:00,
2013-01-18 16:19:00,57.8,37.2,30.40,East,85,2.0,3.0,46,0.00,,---,0.00,VWS V14.01,2013-01-18 22:19:00,
2013-01-18 16:20:00,57.8,37.7,30.41,ENE,68,0.0,1.0,47,0.00,,---,0.00,VWS V14.01,2013-01-18 22:20:00,
2013-01-18 16:21:00,57.8,37.7,30.41,ENE,68,0.0,1.0,47,0.00,,---,0.00,VWS V14.01,2013-01-18 22:21:00,
2013-01-18 16:22:00,57.8,37.2,30.41,East,82,2.0,2.0,46,0.00,,---,0.00,VWS V14.01,2013-01-18 22:22:00,
2013-01-18 16:23:00,57.8,36.6,30.41,ENE,70,2.0,3.0,45,0.00,,---,0.00,VWS V14.01,2013-01-18 22:23:00,
2013-01-18 16:24:00,57.8,37.2,30.41,ENE,68,1.0,5.0,46,0.00,,---,0.00,VWS V14.01,2013-01-18 22:24:00,
2013-01-18 16:25:00,57.6,37.0,30.40,ESE,103,1.0,3.0,46,0.00,,---,0.00,VWS V14.01,2013-01-18 22:25:00,
2013-01-18 16:26:00,57.6,37.0,30.40,ESE,103,1.0,3.0,46,0.00,,---,0.00,VWS V14.01,2013-01-18 22:26:00,
2013-01-18 16:27:00,57.6,37.0,30.40,NNW,334,0.0,4.0,46,0.00,,---,0.00,VWS V14.01,2013-01-18 22:27:00,
2013-01-18 16:28:00,57.5,37.5,30.40,NNW,338,0.0,0.0,47,0.00,,---,0.00,VWS V14.01,2013-01-18 22:28:00,
2013-01-18 16:29:00,57.5,37.5,30.41,East,98,3.0,3.0,47,0.00,,---,0.00,VWS V14.01,2013-01-18 22:29:00,
2013-01-18 16:30:00,57.4,37.9,30.40,ENE,73,2.0,2.0,48,0.00,,---,0.00,VWS V14.01,2013-01-18 22:30:00,
2013-01-18 16:31:00,57.4,37.9,30.40,ENE,73,2.0,2.0,48,0.00,,---,0.00,VWS V14.01,2013-01-18 22:31:00,
2013-01-18 16:32:00,57.3,37.8,30.41,NNE,15,1.0,2.0,48,0.00,,---,0.00,VWS V14.01,2013-01-18 22:32:00,
2013-01-18 16:33:00,57.2,37.7,30.40,NNE,16,0.0,1.0,48,0.00,,---,0.00,VWS V14.01,2013-01-18 22:33:00,
2013-01-18 16:34:00,57.1,37.6,30.40,NNE,16,0.0,0.0,48,0.00,,---,0.00,VWS V14.01,2013-01-18 22:34:00,
2013-01-18 16:35:00,56.9,38.0,30.41,North,6,0.0,2.0,49,0.00,,---,0.00,VWS V14.01,2013-01-18 22:35:00,
2013-01-18 16:36:00,56.9,38.0,30.41,North,6,0.0,2.0,49,0.00,,---,0.00,VWS V14.01,2013-01-18 22:36:00,
2013-01-18 16:37:00,56.8,37.3,30.41,East,79,1.0,1.0,48,0.00,,---,0.00,VWS V14.01,2013-01-18 22:37:00,
2013-01-18 16:38:00,56.7,37.8,30.41,ENE,70,1.0,2.0,49,0.00,,---,0.00,VWS V14.01,2013-01-18 22:38:00,
2013-01-18 16:39:00,56.6,37.7,30.41,ENE,68,0.0,1.0,49,0.00,,---,0.00,VWS V14.01,2013-01-18 22:39:00,
2013-01-18 16:40:00,56.5,37.6,30.41,ENE,68,0.0,0.0,49,0.00,,---,0.00,VWS V14.01,2013-01-18 22:40:00,
2013-01-18 16:41:00,56.3,37.4,30.41,NNE,22,0.0,1.0,49,0.00,,---,0.00,VWS V14.01,2013-01-18 22:41:00,
2013-01-18 16:42:00,56.3,37.4,30.41,NNE,22,0.0,1.0,49,0.00,,---,0.00,VWS V14.01,2013-01-18 22:42:00,
2013-01-18 16:43:00,56.2,37.3,30.41,NE,44,3.0,4.0,49,0.00,,---,0.00,VWS V14.01,2013-01-18 22:43:00,
2013-01-18 16:44:00,56.1,37.2,30.41,ENE,71,0.0,3.0,49,0.00,,---,0.00,VWS V14.01,2013-01-18 22:44:00,
2013-01-18 16:45:00,56.0,37.1,30.41,ENE,68,0.0,1.0,49,0.00,,---,0.00,VWS V14.01,2013-01-18 22:45:00,
2013-01-18 16:46:00,55.8,37.5,30.41,ENE,70,0.0,1.0,50,0.00,,---,0.00,VWS V14.01,2013-01-18 22:46:00,
2013-01-18 16:47:00,55.8,37.5,30.41,ENE,70,0.0,1.0,50,0.00,,---,0.00,VWS V14.01,2013-01-18 22:47:00,
2013-01-18 16:48:00,55.7,37.4,30.41,ENE,70,0.0,0.0,50,0.00,,---,0.00,VWS V14.01,2013-01-18 22:48:00,
2013-01-18 16:49:00,55.6,37.3,30.41,ENE,71,0.0,1.0,50,0.00,,---,0.00,VWS V14.01,2013-01-18 22:49:00,
2013-01-18 16:50:00,55.5,37.7,30.41,ENE,70,0.0,0.0,51,0.00,,---,0.00,VWS V14.01,2013-01-18 22:50:00,
2013-01-18 16:51:00,55.4,37.6,30.41,ENE,71,0.0,0.0,51,0.00,,---,0.00,VWS V14.01,2013-01-18 22:51:00,
2013-01-18 16:52:00,55.2,37.4,30.41,ENE,71,0.0,0.0,51,0.00,,---,0.00,VWS V14.01,2013-01-18 22:52:00,
2013-01-18 16:53:00,55.2,37.4,30.41,ENE,71,0.0,0.0,51,0.00,,---,0.00,VWS V14.01,2013-01-18 22:53:00,
2013-01-18 16:54:00,55.1,37.8,30.41,NE,36,0.0,1.0,52,0.00,,---,0.00,VWS V14.01,2013-01-18 22:54:00,
2013-01-18 16:55:00,55.0,37.7,30.41,NE,36,0.0,0.0,52,0.00,,---,0.00,VWS V14.01,2013-01-18 22:55:00,
2013-01-18 16:56:00,54.9,37.6,30.41,North,3,0.0,2.0,52,0.00,,---,0.00,VWS V14.01,2013-01-18 22:56:00,
2013-01-18 16:57:00,54.7,37.4,30.41,East,89,0.0,1.0,52,0.00,,---,0.00,VWS V14.01,2013-01-18 22:57:00,
2013-01-18 16:58:00,54.7,37.4,30.41,East,89,0.0,1.0,52,0.00,,---,0.00,VWS V14.01,2013-01-18 22:58:00,
2013-01-18 16:59:00,54.6,37.3,30.41,East,89,0.0,0.0,52,0.00,,---,0.00,VWS V14.01,2013-01-18 22:59:00,
2013-01-18 17:00:00,54.6,37.8,30.41,East,89,0.0,0.0,53,0.00,,---,0.00,VWS V14.01,2013-01-18 23:00:00,
2013-01-18 17:01:00,54.5,37.7,30.41,East,89,0.0,0.0,53,0.00,,---,0.00,VWS V14.01,2013-01-18 23:01:00,
2013-01-18 17:02:00,54.3,37.5,30.41,East,89,0.0,0.0,53,0.00,,---,0.00,VWS V14.01,2013-01-18 23:02:00,
2013-01-18 17:03:00,54.3,37.5,30.41,East,89,0.0,0.0,53,0.00,,---,0.00,VWS V14.01,2013-01-18 23:03:00,
2013-01-18 17:04:00,54.2,37.9,30.41,East,87,0.0,0.0,54,0.00,,---,0.00,VWS V14.01,2013-01-18 23:04:00,
2013-01-18 17:05:00,54.1,37.8,30.41,East,89,0.0,0.0,54,0.00,,---,0.00,VWS V14.01,2013-01-18 23:05:00,
2013-01-18 17:06:00,54.0,37.8,30.41,East,89,0.0,0.0,54,0.00,,---,0.00,VWS V14.01,2013-01-18 23:06:00,
2013-01-18 17:07:00,53.8,38.0,30.41,East,87,0.0,0.0,55,0.00,,---,0.00,VWS V14.01,2013-01-18 23:07:00,
2013-01-18 17:08:00,53.8,38.0,30.41,East,87,0.0,0.0,55,0.00,,---,0.00,VWS V14.01,2013-01-18 23:08:00,
2013-01-18 17:09:00,53.7,37.9,30.41,East,89,0.0,0.0,55,0.00,,---,0.00,VWS V14.01,2013-01-18 23:09:00,
2013-01-18 17:10:00,53.6,37.8,30.41,East,88,0.0,0.0,55,0.00,,---,0.00,VWS V14.01,2013-01-18 23:10:00,
2013-01-18 17:11:00,53.4,38.1,30.41,East,88,0.0,0.0,56,0.00,,---,0.00,VWS V14.01,2013-01-18 23:11:00,
2013-01-18 17:12:00,53.1,38.3,30.41,East,88,0.0,0.0,57,0.00,,---,0.00,VWS V14.01,2013-01-18 23:12:00,
2013-01-18 17:13:00,53.1,38.3,30.41,East,88,0.0,0.0,57,0.00,,---,0.00,VWS V14.01,2013-01-18 23:13:00,
2013-01-18 17:14:00,53.0,38.2,30.41,East,87,0.0,0.0,57,0.00,,---,0.00,VWS V14.01,2013-01-18 23:14:00,
2013-01-18 17:15:00,52.8,38.0,30.41,East,89,0.0,0.0,57,0.00,,---,0.00,VWS V14.01,2013-01-18 23:15:00,
2013-01-18 17:16:00,52.7,37.9,30.41,East,89,0.0,0.0,57,0.00,,---,0.00,VWS V14.01,2013-01-18 23:16:00,
2013-01-18 17:17:00,52.4,38.1,30.41,East,89,0.0,0.0,58,0.00,,---,0.00,VWS V14.01,2013-01-18 23:17:00,
2013-01-18 17:18:00,52.4,38.1,30.41,East,89,0.0,0.0,58,0.00,,---,0.00,VWS V14.01,2013-01-18 23:18:00,
2013-01-18 17:19:00,52.3,38.0,30.41,East,89,0.0,0.0,58,0.00,,---,0.00,VWS V14.01,2013-01-18 23:19:00,
2013-01-18 17:20:00,52.1,37.8,30.41,East,87,0.0,0.0,58,0.00,,---,0.00,VWS V14.01,2013-01-18 23:20:00,
2013-01-18 17:21:00,52.0,37.7,30.41,East,87,0.0,0.0,58,0.00,,---,0.00,VWS V14.01,2013-01-18 23:21:00,
2013-01-18 17:22:00,51.9,38.0,30.41,East,87,0.0,0.0,59,0.00,,---,0.00,VWS V14.01,2013-01-18 23:22:00,
2013-01-18 17:23:00,51.7,38.3,30.41,East,89,0.0,0.0,60,0.00,,---,0.00,VWS V14.01,2013-01-18 23:23:00,
2013-01-18 17:24:00,51.7,38.3,30.41,East,89,0.0,0.0,60,0.00,,---,0.00,VWS V14.01,2013-01-18 23:24:00,
2013-01-18 17:25:00,51.5,37.7,30.41,East,88,0.0,0.0,59,0.00,,---,0.00,VWS V14.01,2013-01-18 23:25:00,
2013-01-18 17:26:00,51.4,37.6,30.41,East,87,0.0,0.0,59,0.00,,---,0.00,VWS V14.01,2013-01-18 23:26:00,
2013-01-18 17:27:00,51.3,37.5,30.41,East,88,0.0,0.0,59,0.00,,---,0.00,VWS V14.01,2013-01-18 23:27:00,
2013-01-18 17:28:00,51.2,37.8,30.41,East,89,0.0,0.0,60,0.00,,---,0.00,VWS V14.01,2013-01-18 23:28:00,
2013-01-18 17:29:00,51.0,37.6,30.42,East,89,0.0,0.0,60,0.00,,---,0.00,VWS V14.01,2013-01-18 23:29:00,
2013-01-18 17:30:00,51.0,37.6,30.42,East,89,0.0,0.0,60,0.00,,---,0.00,VWS V14.01,2013-01-18 23:30:00,
2013-01-18 17:31:00,50.9,37.9,30.41,East,87,0.0,0.0,61,0.00,,---,0.00,VWS V14.01,2013-01-18 23:31:00,
2013-01-18 17:32:00,50.8,37.8,30.41,East,89,0.0,0.0,61,0.00,,---,0.00,VWS V14.01,2013-01-18 23:32:00,
2013-01-18 17:33:00,50.7,37.8,30.41,East,87,0.0,0.0,61,0.00,,---,0.00,VWS V14.01,2013-01-18 23:33:00,
2013-01-18 17:34:00,50.5,38.0,30.41,East,88,0.0,0.0,62,0.00,,---,0.00,VWS V14.01,2013-01-18 23:34:00,
2013-01-18 17:35:00,50.5,38.0,30.41,East,88,0.0,0.0,62,0.00,,---,0.00,VWS V14.01,2013-01-18 23:35:00,
2013-01-18 17:36:00,50.4,37.9,30.42,East,88,0.0,0.0,62,0.00,,---,0.00,VWS V14.01,2013-01-18 23:36:00,
2013-01-18 17:37:00,50.3,38.2,30.42,East,88,0.0,0.0,63,0.00,,---,0.00,VWS V14.01,2013-01-18 23:37:00,
2013-01-18 17:38:00,50.1,38.0,30.42,East,89,0.0,0.0,63,0.00,,---,0.00,VWS V14.01,2013-01-18 23:38:00,
2013-01-18 17:39:00,49.9,38.6,30.42,East,89,0.0,0.0,65,0.00,,---,0.00,VWS V14.01,2013-01-18 23:39:00,
2013-01-18 17:40:00,49.9,38.6,30.42,East,89,0.0,0.0,65,0.00,,---,0.00,VWS V14.01,2013-01-18 23:40:00,
2013-01-18 17:41:00,49.7,38.4,30.42,East,88,0.0,0.0,65,0.00,,---,0.00,VWS V14.01,2013-01-18 23:41:00,
2013-01-18 17:42:00,49.6,38.3,30.42,East,88,0.0,0.0,65,0.00,,---,0.00,VWS V14.01,2013-01-18 23:42:00,
2013-01-18 17:43:00,49.5,38.2,30.42,East,88,0.0,0.0,65,0.00,,---,0.00,VWS V14.01,2013-01-18 23:43:00,
2013-01-18 17:44:00,49.2,38.3,30.42,East,89,0.0,0.0,66,0.00,,---,0.00,VWS V14.01,2013-01-18 23:44:00,
2013-01-18 17:45:00,49.2,38.3,30.42,East,89,0.0,0.0,66,0.00,,---,0.00,VWS V14.01,2013-01-18 23:45:00,
2013-01-18 17:46:00,49.0,38.2,30.42,East,89,0.0,0.0,66,0.00,,---,0.00,VWS V14.01,2013-01-18 23:46:00,
2013-01-18 17:47:00,48.9,38.1,30.42,East,89,0.0,0.0,66,0.00,,---,0.00,VWS V14.01,2013-01-18 23:47:00,
2013-01-18 17:48:00,48.8,38.0,30.42,East,89,0.0,0.0,66,0.00,,---,0.00,VWS V14.01,2013-01-18 23:48:00,
2013-01-18 17:49:00,48.5,37.7,30.42,East,89,0.0,0.0,66,0.00,,---,0.00,VWS V14.01,2013-01-18 23:49:00,
2013-01-18 17:50:00,48.5,37.7,30.42,East,89,0.0,0.0,66,0.00,,---,0.00,VWS V14.01,2013-01-18 23:50:00,
2013-01-18 17:52:00,48.2,37.8,30.42,East,88,0.0,0.0,67,0.00,,---,0.00,VWS V14.01,2013-01-18 23:52:00,
2013-01-18 17:53:00,48.1,37.7,30.42,East,89,0.0,0.0,67,0.00,,---,0.00,VWS V14.01,2013-01-18 23:53:00,
2013-01-18 17:54:00,47.9,37.9,30.42,East,89,0.0,0.0,68,0.00,,---,0.00,VWS V14.01,2013-01-18 23:54:00,
2013-01-18 17:55:00,47.9,37.9,30.42,East,89,0.0,0.0,68,0.00,,---,0.00,VWS V14.01,2013-01-18 23:55:00,
2013-01-18 17:56:00,47.8,37.8,30.42,East,89,0.0,0.0,68,0.00,,---,0.00,VWS V14.01,2013-01-18 23:56:00,
2013-01-18 17:57:00,47.7,37.7,30.42,East,89,0.0,0.0,68,0.00,,---,0.00,VWS V14.01,2013-01-18 23:57:00,
2013-01-18 17:58:00,47.6,38.0,30.42,East,89,0.0,0.0,69,0.00,,---,0.00,VWS V14.01,2013-01-18 23:58:00,
2013-01-18 17:59:00,47.4,38.1,30.42,East,89,0.0,0.0,70,0.00,,---,0.00,VWS V14.01,2013-01-18 23:59:00,
2013-01-18 18:00:00,47.4,38.1,30.42,East,89,0.0,0.0,70,0.00,,---,0.00,VWS V14.01,2013-01-19 00:00:00,
2013-01-18 18:01:00,47.3,38.4,30.42,East,87,0.0,0.0,71,0.00,,---,0.00,VWS V14.01,2013-01-19 00:01:00,
2013-01-18 18:02:00,47.3,38.4,30.42,East,89,0.0,0.0,71,0.00,,---,0.00,VWS V14.01,2013-01-19 00:02:00,
2013-01-18 18:03:00,47.2,38.3,30.42,East,88,0.0,0.0,71,0.00,,---,0.00,VWS V14.01,2013-01-19 00:03:00,
2013-01-18 18:04:00,47.1,38.2,30.42,East,89,0.0,0.0,71,0.00,,---,0.00,VWS V14.01,2013-01-19 00:04:00,
2013-01-18 18:05:00,47.0,38.1,30.42,East,89,0.0,0.0,71,0.00,,---,0.00,VWS V14.01,2013-01-19 00:05:00,
2013-01-18 18:06:00,47.0,38.1,30.42,East,89,0.0,0.0,71,0.00,,---,0.00,VWS V14.01,2013-01-19 00:06:00,
2013-01-18 18:07:00,46.9,38.0,30.42,East,89,0.0,0.0,71,0.00,,---,0.00,VWS V14.01,2013-01-19 00:07:00,
2013-01-18 18:08:00,46.8,37.9,30.42,East,89,0.0,0.0,71,0.00,,---,0.00,VWS V14.01,2013-01-19 00:08:00,
2013-01-18 18:09:00,46.7,38.2,30.42,East,89,0.0,0.0,72,0.00,,---,0.00,VWS V14.01,2013-01-19 00:09:00,
2013-01-18 18:10:00,46.6,38.1,30.42,East,89,0.0,0.0,72,0.00,,---,0.00,VWS V14.01,2013-01-19 00:10:00,
2013-01-18 18:11:00,46.4,38.2,30.42,East,89,0.0,0.0,73,0.00,,---,0.00,VWS V14.01,2013-01-19 00:11:00,
2013-01-18 18:12:00,46.4,38.2,30.42,East,89,0.0,0.0,73,0.00,,---,0.00,VWS V14.01,2013-01-19 00:12:00,
2013-01-18 18:13:00,46.2,38.0,30.42,East,89,0.0,0.0,73,0.00,,---,0.00,VWS V14.01,2013-01-19 00:13:00,
2013-01-18 18:14:00,46.1,37.9,30.42,East,89,0.0,0.0,73,0.00,,---,0.00,VWS V14.01,2013-01-19 00:14:00,
2013-01-18 18:15:00,46.1,38.6,30.42,East,89,0.0,0.0,75,0.00,,---,0.00,VWS V14.01,2013-01-19 00:15:00,
2013-01-18 18:16:00,46.0,38.5,30.43,East,89,0.0,0.0,75,0.00,,---,0.00,VWS V14.01,2013-01-19 00:16:00,
2013-01-18 18:17:00,46.0,38.5,30.43,East,89,0.0,0.0,75,0.00,,---,0.00,VWS V14.01,2013-01-19 00:17:00,
2013-01-18 18:18:00,45.9,38.4,30.43,East,89,0.0,0.0,75,0.00,,---,0.00,VWS V14.01,2013-01-19 00:18:00,
2013-01-18 18:19:00,45.9,38.4,30.43,East,89,0.0,0.0,75,0.00,,---,0.00,VWS V14.01,2013-01-19 00:19:00,
2013-01-18 18:20:00,45.9,38.8,30.43,East,89,0.0,0.0,76,0.00,,---,0.00,VWS V14.01,2013-01-19 00:20:00,
2013-01-18 18:21:00,45.7,38.2,30.43,East,89,0.0,0.0,75,0.00,,---,0.00,VWS V14.01,2013-01-19 00:21:00,
2013-01-18 18:22:00,45.7,38.2,30.43,East,89,0.0,0.0,75,0.00,,---,0.00,VWS V14.01,2013-01-19 00:22:00,
2013-01-18 18:23:00,45.7,38.2,30.43,East,89,0.0,0.0,75,0.00,,---,0.00,VWS V14.01,2013-01-19 00:23:00,
2013-01-18 18:24:00,45.6,38.2,30.43,East,89,0.0,0.0,75,0.00,,---,0.00,VWS V14.01,2013-01-19 00:24:00,
2013-01-18 18:25:00,45.5,38.0,30.43,East,89,0.0,0.0,75,0.00,,---,0.00,VWS V14.01,2013-01-19 00:25:00,
2013-01-18 18:26:00,45.3,38.2,30.43,East,89,0.0,0.0,76,0.00,,---,0.00,VWS V14.01,2013-01-19 00:26:00,
2013-01-18 18:27:00,45.3,38.2,30.43,East,89,0.0,0.0,76,0.00,,---,0.00,VWS V14.01,2013-01-19 00:27:00,
2013-01-18 18:28:00,45.2,38.1,30.43,East,89,0.0,0.0,76,0.00,,---,0.00,VWS V14.01,2013-01-19 00:28:00,
2013-01-18 18:29:00,45.1,38.0,30.43,East,89,0.0,0.0,76,0.00,,---,0.00,VWS V14.01,2013-01-19 00:29:00,
2013-01-18 18:30:00,45.0,38.2,30.43,East,89,0.0,0.0,77,0.00,,---,0.00,VWS V14.01,2013-01-19 00:30:00,
2013-01-18 18:31:00,44.9,38.1,30.43,East,89,0.0,0.0,77,0.00,,---,0.00,VWS V14.01,2013-01-19 00:31:00,
2013-01-18 18:32:00,44.7,38.3,30.43,East,89,0.0,0.0,78,0.00,,---,0.00,VWS V14.01,2013-01-19 00:32:00,
2013-01-18 18:33:00,44.7,38.3,30.43,East,89,0.0,0.0,78,0.00,,---,0.00,VWS V14.01,2013-01-19 00:33:00,
2013-01-18 18:34:00,44.7,37.9,30.43,East,89,0.0,0.0,77,0.00,,---,0.00,VWS V14.01,2013-01-19 00:34:00,
2013-01-18 18:35:00,44.6,37.8,30.43,East,89,0.0,0.0,77,0.00,,---,0.00,VWS V14.01,2013-01-19 00:35:00,
2013-01-18 18:36:00,44.5,37.8,30.43,East,89,0.0,0.0,77,0.00,,---,0.00,VWS V14.01,2013-01-19 00:36:00,
2013-01-18 18:37:00,44.4,37.7,30.43,East,89,0.0,0.0,77,0.00,,---,0.00,VWS V14.01,2013-01-19 00:37:00,
2013-01-18 18:38:00,44.2,37.1,30.43,East,89,0.0,0.0,76,0.00,,---,0.00,VWS V14.01,2013-01-19 00:38:00,
2013-01-18 18:39:00,44.2,37.1,30.43,East,89,0.0,0.0,76,0.00,,---,0.00,VWS V14.01,2013-01-19 00:39:00,
2013-01-18 18:40:00,44.1,37.0,30.43,East,89,0.0,0.0,76,0.00,,---,0.00,VWS V14.01,2013-01-19 00:40:00,
2013-01-18 18:41:00,44.0,36.9,30.43,East,89,0.0,0.0,76,0.00,,---,0.00,VWS V14.01,2013-01-19 00:41:00,
2013-01-18 18:42:00,43.9,36.8,30.43,East,89,0.0,0.0,76,0.00,,---,0.00,VWS V14.01,2013-01-19 00:42:00,
2013-01-18 18:43:00,43.7,37.0,30.43,East,89,0.0,0.0,77,0.00,,---,0.00,VWS V14.01,2013-01-19 00:43:00,
2013-01-18 18:44:00,43.7,37.0,30.43,East,89,0.0,0.0,77,0.00,,---,0.00,VWS V14.01,2013-01-19 00:44:00,
2013-01-18 18:45:00,43.7,37.0,30.43,East,89,0.0,0.0,77,0.00,,---,0.00,VWS V14.01,2013-01-19 00:45:00,
2013-01-18 18:46:00,43.6,36.9,30.43,East,89,0.0,0.0,77,0.00,,---,0.00,VWS V14.01,2013-01-19 00:46:00,
2013-01-18 18:47:00,43.6,37.2,30.43,East,89,0.0,0.0,78,0.00,,---,0.00,VWS V14.01,2013-01-19 00:47:00,
2013-01-18 18:48:00,43.5,37.1,30.43,East,89,0.0,0.0,78,0.00,,---,0.00,VWS V14.01,2013-01-19 00:48:00,
2013-01-18 18:49:00,43.5,37.1,30.43,East,89,0.0,0.0,78,0.00,,---,0.00,VWS V14.01,2013-01-19 00:49:00,
2013-01-18 18:50:00,43.5,37.4,30.43,East,89,0.0,0.0,79,0.00,,---,0.00,VWS V14.01,2013-01-19 00:50:00,
2013-01-18 18:51:00,43.5,37.4,30.43,East,89,0.0,0.0,79,0.00,,---,0.00,VWS V14.01,2013-01-19 00:51:00,
2013-01-18 18:52:00,43.5,37.4,30.43,East,89,0.0,0.0,79,0.00,,---,0.00,VWS V14.01,2013-01-19 00:52:00,
2013-01-18 18:53:00,43.5,37.4,30.43,East,89,0.0,0.0,79,0.00,,---,0.00,VWS V14.01,2013-01-19 00:53:00,
2013-01-18 18:54:00,43.5,37.4,30.43,East,89,0.0,0.0,79,0.00,,---,0.00,VWS V14.01,2013-01-19 00:54:00,
2013-01-18 18:55:00,43.5,37.4,30.43,East,89,0.0,0.0,79,0.00,,---,0.00,VWS V14.01,2013-01-19 00:55:00,
2013-01-18 18:56:00,43.4,37.3,30.43,East,89,0.0,0.0,79,0.00,,---,0.00,VWS V14.01,2013-01-19 00:56:00,
2013-01-18 18:57:00,43.4,37.3,30.43,East,89,0.0,0.0,79,0.00,,---,0.00,VWS V14.01,2013-01-19 00:57:00,
2013-01-18 18:58:00,43.3,37.6,30.43,East,89,0.0,0.0,80,0.00,,---,0.00,VWS V14.01,2013-01-19 00:58:00,
2013-01-18 18:59:00,43.3,37.6,30.43,East,89,0.0,0.0,80,0.00,,---,0.00,VWS V14.01,2013-01-19 00:59:00,
2013-01-18 19:00:00,43.4,37.7,30.43,East,89,0.0,0.0,80,0.00,,---,0.00,VWS V14.01,2013-01-19 01:00:00,
2013-01-18 19:01:00,43.5,37.8,30.43,East,89,0.0,0.0,80,0.00,,---,0.00,VWS V14.01,2013-01-19 01:01:00,
2013-01-18 19:02:00,43.6,37.8,30.43,East,89,0.0,0.0,80,0.00,,---,0.00,VWS V14.01,2013-01-19 01:02:00,
2013-01-18 19:03:00,43.9,38.1,30.43,East,89,0.0,0.0,80,0.00,,---,0.00,VWS V14.01,2013-01-19 01:03:00,
2013-01-18 19:04:00,43.9,38.1,30.43,East,89,0.0,0.0,80,0.00,,---,0.00,VWS V14.01,2013-01-19 01:04:00,
2013-01-18 19:05:00,43.9,38.1,30.43,East,89,0.0,0.0,80,0.00,,---,0.00,VWS V14.01,2013-01-19 01:05:00,
2013-01-18 19:06:00,44.0,38.2,30.43,East,89,0.0,0.0,80,0.00,,---,0.00,VWS V14.01,2013-01-19 01:06:00,
2013-01-18 19:08:00,44.1,38.0,30.43,East,89,0.0,0.0,79,0.00,,---,0.00,VWS V14.01,2013-01-19 01:08:00,
2013-01-18 19:09:00,44.1,38.0,30.43,East,89,0.0,0.0,79,0.00,,---,0.00,VWS V14.01,2013-01-19 01:09:00,
2013-01-18 19:10:00,44.1,38.0,30.43,East,89,0.0,0.0,79,0.00,,---,0.00,VWS V14.01,2013-01-19 01:10:00,
2013-01-18 19:11:00,44.2,38.1,30.43,East,89,0.0,0.0,79,0.00,,---,0.00,VWS V14.01,2013-01-19 01:11:00,
2013-01-18 19:12:00,44.2,38.1,30.43,East,89,0.0,0.0,79,0.00,,---,0.00,VWS V14.01,2013-01-19 01:12:00,
2013-01-18 19:13:00,44.2,38.1,30.43,East,89,0.0,0.0,79,0.00,,---,0.00,VWS V14.01,2013-01-19 01:13:00,
2013-01-18 19:14:00,44.2,38.1,30.43,East,89,0.0,0.0,79,0.00,,---,0.00,VWS V14.01,2013-01-19 01:14:00,
2013-01-18 19:15:00,44.2,38.1,30.43,East,88,0.0,0.0,79,0.00,,---,0.00,VWS V14.01,2013-01-19 01:15:00,
2013-01-18 19:16:00,44.2,38.1,30.43,East,89,0.0,0.0,79,0.00,,---,0.00,VWS V14.01,2013-01-19 01:16:00,
2013-01-18 19:17:00,44.1,38.0,30.43,East,89,0.0,0.0,79,0.00,,---,0.00,VWS V14.01,2013-01-19 01:17:00,
2013-01-18 19:18:00,44.0,37.9,30.43,East,89,0.0,0.0,79,0.00,,---,0.00,VWS V14.01,2013-01-19 01:18:00,
2013-01-18 19:19:00,44.0,37.9,30.43,East,89,0.0,0.0,79,0.00,,---,0.00,VWS V14.01,2013-01-19 01:19:00,
2013-01-18 19:20:00,43.9,37.8,30.43,East,89,0.0,0.0,79,0.00,,---,0.00,VWS V14.01,2013-01-19 01:20:00,
2013-01-18 19:21:00,43.8,37.7,30.43,East,89,0.0,0.0,79,0.00,,---,0.00,VWS V14.01,2013-01-19 01:21:00,
2013-01-18 19:23:00,43.6,37.8,30.43,East,89,0.0,0.0,80,0.00,,---,0.00,VWS V14.01,2013-01-19 01:23:00,
2013-01-18 19:24:00,43.5,38.1,30.43,East,89,0.0,0.0,81,0.00,,---,0.00,VWS V14.01,2013-01-19 01:24:00,
2013-01-18 19:25:00,43.5,38.1,30.43,East,89,0.0,0.0,81,0.00,,---,0.00,VWS V14.01,2013-01-19 01:25:00,
2013-01-18 19:26:00,43.4,38.0,30.43,East,89,0.0,0.0,81,0.00,,---,0.00,VWS V14.01,2013-01-19 01:26:00,
2013-01-18 19:27:00,43.4,38.0,30.43,East,89,0.0,0.0,81,0.00,,---,0.00,VWS V14.01,2013-01-19 01:27:00,
2013-01-18 19:28:00,43.3,37.9,30.43,East,89,0.0,0.0,81,0.00,,---,0.00,VWS V14.01,2013-01-19 01:28:00,
2013-01-18 19:29:00,43.1,37.7,30.43,East,89,0.0,0.0,81,0.00,,---,0.00,VWS V14.01,2013-01-19 01:29:00,
2013-01-18 19:30:00,43.1,37.7,30.43,East,89,0.0,0.0,81,0.00,,---,0.00,VWS V14.01,2013-01-19 01:30:00,
2013-01-18 19:31:00,43.0,37.6,30.43,East,89,0.0,0.0,81,0.00,,---,0.00,VWS V14.01,2013-01-19 01:31:00,
2013-01-18 19:32:00,43.0,37.6,30.43,East,89,0.0,0.0,81,0.00,,---,0.00,VWS V14.01,2013-01-19 01:32:00,
2013-01-18 19:33:00,42.9,37.5,30.43,East,89,0.0,0.0,81,0.00,,---,0.00,VWS V14.01,2013-01-19 01:33:00,
2013-01-18 19:34:00,42.8,37.7,30.43,East,89,0.0,0.0,82,0.00,,---,0.00,VWS V14.01,2013-01-19 01:34:00,
2013-01-18 19:35:00,42.7,37.6,30.43,East,89,0.0,0.0,82,0.00,,---,0.00,VWS V14.01,2013-01-19 01:35:00,
2013-01-18 19:36:00,42.7,37.6,30.43,East,89,0.0,0.0,82,0.00,,---,0.00,VWS V14.01,2013-01-19 01:36:00,
2013-01-18 19:37:00,42.6,37.5,30.43,East,89,0.0,0.0,82,0.00,,---,0.00,VWS V14.01,2013-01-19 01:37:00,
2013-01-18 19:38:00,42.6,37.8,30.43,East,89,0.0,0.0,83,0.00,,---,0.00,VWS V14.01,2013-01-19 01:38:00,
2013-01-18 19:39:00,42.6,37.8,30.43,East,89,0.0,0.0,83,0.00,,---,0.00,VWS V14.01,2013-01-19 01:39:00,
2013-01-18 19:40:00,42.5,37.7,30.43,East,89,0.0,0.0,83,0.00,,---,0.00,VWS V14.01,2013-01-19 01:40:00,
2013-01-18 19:41:00,42.5,37.7,30.43,East,89,0.0,0.0,83,0.00,,---,0.00,VWS V14.01,2013-01-19 01:41:00,
2013-01-18 19:42:00,42.5,37.7,30.43,East,89,0.0,0.0,83,0.00,,---,0.00,VWS V14.01,2013-01-19 01:42:00,
2013-01-18 19:43:00,42.5,37.7,30.43,East,89,0.0,0.0,83,0.00,,---,0.00,VWS V14.01,2013-01-19 01:43:00,
2013-01-18 19:44:00,42.4,37.6,30.43,East,89,0.0,0.0,83,0.00,,---,0.00,VWS V14.01,2013-01-19 01:44:00,
2013-01-18 19:45:00,42.4,37.6,30.43,East,89,0.0,0.0,83,0.00,,---,0.00,VWS V14.01,2013-01-19 01:45:00,
2013-01-18 19:46:00,42.2,37.4,30.43,East,89,0.0,0.0,83,0.00,,---,0.00,VWS V14.01,2013-01-19 01:46:00,
2013-01-18 19:47:00,42.2,37.4,30.43,East,89,0.0,0.0,83,0.00,,---,0.00,VWS V14.01,2013-01-19 01:47:00,
2013-01-18 19:48:00,42.2,37.4,30.43,East,89,0.0,0.0,83,0.00,,---,0.00,VWS V14.01,2013-01-19 01:48:00,
2013-01-18 19:49:00,42.1,37.3,30.43,East,89,0.0,0.0,83,0.00,,---,0.00,VWS V14.01,2013-01-19 01:49:00,
2013-01-18 19:50:00,42.1,37.6,30.43,East,89,0.0,0.0,84,0.00,,---,0.00,VWS V14.01,2013-01-19 01:50:00,
2013-01-18 19:51:00,42.0,37.5,30.43,East,89,0.0,0.0,84,0.00,,---,0.00,VWS V14.01,2013-01-19 01:51:00,
2013-01-18 19:52:00,41.8,37.3,30.43,East,89,0.0,0.0,84,0.00,,---,0.00,VWS V14.01,2013-01-19 01:52:00,
2013-01-18 19:53:00,41.8,37.3,30.43,East,89,0.0,0.0,84,0.00,,---,0.00,VWS V14.01,2013-01-19 01:53:00,
2013-01-18 19:54:00,41.7,37.2,30.43,East,89,0.0,0.0,84,0.00,,---,0.00,VWS V14.01,2013-01-19 01:54:00,
2013-01-18 19:55:00,41.7,37.2,30.43,East,89,0.0,0.0,84,0.00,,---,0.00,VWS V14.01,2013-01-19 01:55:00,
2013-01-18 19:56:00,41.6,37.4,30.43,East,89,0.0,0.0,85,0.00,,---,0.00,VWS V14.01,2013-01-19 01:56:00,
2013-01-18 19:57:00,41.5,37.3,30.43,East,89,0.0,0.0,85,0.00,,---,0.00,VWS V14.01,2013-01-19 01:57:00,
2013-01-18 19:58:00,41.5,37.3,30.43,East,89,0.0,0.0,85,0.00,,---,0.00,VWS V14.01,2013-01-19 01:58:00,
2013-01-18 19:59:00,41.4,37.2,30.43,East,89,0.0,0.0,85,0.00,,---,0.00,VWS V14.01,2013-01-19 01:59:00,
2013-01-18 20:00:00,41.3,37.1,30.43,East,89,0.0,0.0,85,0.00,,---,0.00,VWS V14.01,2013-01-19 02:00:00,
2013-01-18 20:01:00,41.3,37.1,30.43,East,89,0.0,0.0,85,0.00,,---,0.00,VWS V14.01,2013-01-19 02:01:00,
2013-01-18 20:02:00,41.2,37.3,30.43,East,89,0.0,0.0,86,0.00,,---,0.00,VWS V14.01,2013-01-19 02:02:00,
2013-01-18 20:03:00,41.2,37.3,30.43,East,89,0.0,0.0,86,0.00,,---,0.00,VWS V14.01,2013-01-19 02:03:00,
2013-01-18 20:04:00,41.2,37.3,30.43,East,89,0.0,0.0,86,0.00,,---,0.00,VWS V14.01,2013-01-19 02:04:00,
2013-01-18 20:05:00,41.1,37.2,30.43,East,89,0.0,0.0,86,0.00,,---,0.00,VWS V14.01,2013-01-19 02:05:00,
2013-01-18 20:06:00,41.1,37.2,30.43,East,89,0.0,0.0,86,0.00,,---,0.00,VWS V14.01,2013-01-19 02:06:00,
2013-01-18 20:07:00,41.1,37.5,30.43,East,89,0.0,0.0,87,0.00,,---,0.00,VWS V14.01,2013-01-19 02:07:00,
2013-01-18 20:08:00,41.1,37.5,30.43,East,89,0.0,0.0,87,0.00,,---,0.00,VWS V14.01,2013-01-19 02:08:00,
2013-01-18 20:09:00,41.1,37.5,30.43,East,89,0.0,0.0,87,0.00,,---,0.00,VWS V14.01,2013-01-19 02:09:00,
2013-01-18 20:10:00,41.1,37.5,30.43,East,89,0.0,0.0,87,0.00,,---,0.00,VWS V14.01,2013-01-19 02:10:00,
2013-01-18 20:11:00,41.2,37.6,30.43,East,89,0.0,0.0,87,0.00,,---,0.00,VWS V14.01,2013-01-19 02:11:00,
2013-01-18 20:12:00,41.3,37.7,30.43,East,89,0.0,0.0,87,0.00,,---,0.00,VWS V14.01,2013-01-19 02:12:00,
2013-01-18 20:13:00,41.3,37.4,30.43,East,89,0.0,0.0,86,0.00,,---,0.00,VWS V14.01,2013-01-19 02:13:00,
2013-01-18 20:14:00,41.3,37.4,30.43,East,89,0.0,0.0,86,0.00,,---,0.00,VWS V14.01,2013-01-19 02:14:00,
2013-01-18 20:15:00,41.3,37.4,30.43,East,89,0.0,0.0,86,0.00,,---,0.00,VWS V14.01,2013-01-19 02:15:00,
2013-01-18 20:16:00,41.3,37.4,30.43,East,88,0.0,0.0,86,0.00,,---,0.00,VWS V14.01,2013-01-19 02:16:00,
2013-01-18 20:17:00,41.4,37.5,30.43,East,89,0.0,0.0,86,0.00,,---,0.00,VWS V14.01,2013-01-19 02:17:00,
2013-01-18 20:18:00,41.4,37.5,30.43,East,89,0.0,0.0,86,0.00,,---,0.00,VWS V14.01,2013-01-19 02:18:00,
2013-01-18 20:19:00,41.4,37.5,30.43,East,89,0.0,0.0,86,0.00,,---,0.00,VWS V14.01,2013-01-19 02:19:00,
2013-01-18 20:20:00,41.4,37.5,30.43,East,89,0.0,0.0,86,0.00,,---,0.00,VWS V14.01,2013-01-19 02:20:00,
2013-01-18 20:21:00,41.4,37.5,30.43,East,89,0.0,0.0,86,0.00,,---,0.00,VWS V14.01,2013-01-19 02:21:00,
2013-01-18 20:22:00,41.4,37.5,30.43,East,89,0.0,0.0,86,0.00,,---,0.00,VWS V14.01,2013-01-19 02:22:00,
2013-01-18 20:23:00,41.3,37.4,30.43,East,89,0.0,0.0,86,0.00,,---,0.00,VWS V14.01,2013-01-19 02:23:00,
2013-01-18 20:24:00,41.3,37.4,30.43,East,89,0.0,0.0,86,0.00,,---,0.00,VWS V14.01,2013-01-19 02:24:00,
2013-01-18 20:25:00,41.2,37.3,30.43,East,89,0.0,0.0,86,0.00,,---,0.00,VWS V14.01,2013-01-19 02:25:00,
2013-01-18 20:26:00,41.2,37.3,30.43,East,89,0.0,0.0,86,0.00,,---,0.00,VWS V14.01,2013-01-19 02:26:00,
2013-01-18 20:27:00,41.1,37.2,30.43,East,89,0.0,0.0,86,0.00,,---,0.00,VWS V14.01,2013-01-19 02:27:00,
2013-01-18 20:28:00,41.0,37.1,30.43,East,89,0.0,0.0,86,0.00,,---,0.00,VWS V14.01,2013-01-19 02:28:00,
2013-01-18 20:29:00,40.9,37.0,30.43,East,89,0.0,0.0,86,0.00,,---,0.00,VWS V14.01,2013-01-19 02:29:00,
2013-01-18 20:30:00,40.8,36.9,30.43,East,89,0.0,0.0,86,0.00,,---,0.00,VWS V14.01,2013-01-19 02:30:00,
2013-01-18 20:31:00,40.8,36.9,30.43,East,89,0.0,0.0,86,0.00,,---,0.00,VWS V14.01,2013-01-19 02:31:00,
2013-01-18 20:32:00,40.7,36.8,30.43,East,89,0.0,0.0,86,0.00,,---,0.00,VWS V14.01,2013-01-19 02:32:00,
2013-01-18 20:33:00,40.7,36.8,30.43,East,89,0.0,0.0,86,0.00,,---,0.00,VWS V14.01,2013-01-19 02:33:00,
2013-01-18 20:34:00,40.6,36.8,30.43,East,89,0.0,0.0,86,0.00,,---,0.00,VWS V14.01,2013-01-19 02:34:00,
2013-01-18 20:35:00,40.5,36.9,30.43,East,89,0.0,0.0,87,0.00,,---,0.00,VWS V14.01,2013-01-19 02:35:00,
2013-01-18 20:36:00,40.5,36.9,30.43,East,89,0.0,0.0,87,0.00,,---,0.00,VWS V14.01,2013-01-19 02:36:00,
2013-01-18 20:37:00,40.4,36.8,30.43,East,89,0.0,0.0,87,0.00,,---,0.00,VWS V14.01,2013-01-19 02:37:00,
2013-01-18 20:38:00,40.4,36.8,30.42,East,89,0.0,0.0,87,0.00,,---,0.00,VWS V14.01,2013-01-19 02:38:00,
2013-01-18 20:39:00,40.3,36.8,30.42,East,89,0.0,0.0,87,0.00,,---,0.00,VWS V14.01,2013-01-19 02:39:00,
2013-01-18 20:40:00,40.2,36.7,30.43,East,89,0.0,0.0,87,0.00,,---,0.00,VWS V14.01,2013-01-19 02:40:00,
2013-01-18 20:41:00,40.2,36.7,30.43,East,89,0.0,0.0,87,0.00,,---,0.00,VWS V14.01,2013-01-19 02:41:00,
2013-01-18 20:42:00,40.2,36.9,30.42,East,89,0.0,0.0,88,0.00,,---,0.00,VWS V14.01,2013-01-19 02:42:00,
2013-01-18 20:43:00,40.2,36.9,30.42,East,89,0.0,0.0,88,0.00,,---,0.00,VWS V14.01,2013-01-19 02:43:00,
2013-01-18 20:44:00,40.3,37.0,30.42,East,89,0.0,0.0,88,0.00,,---,0.00,VWS V14.01,2013-01-19 02:44:00,
2013-01-18 20:45:00,40.4,37.1,30.42,East,89,0.0,0.0,88,0.00,,---,0.00,VWS V14.01,2013-01-19 02:45:00,
2013-01-18 20:46:00,40.4,37.1,30.42,East,89,0.0,0.0,88,0.00,,---,0.00,VWS V14.01,2013-01-19 02:46:00,
2013-01-18 20:47:00,40.4,37.1,30.42,East,89,0.0,0.0,88,0.00,,---,0.00,VWS V14.01,2013-01-19 02:47:00,
2013-01-18 20:48:00,40.5,37.2,30.42,East,89,0.0,0.0,88,0.00,,---,0.00,VWS V14.01,2013-01-19 02:48:00,
2013-01-18 20:49:00,40.5,37.2,30.42,East,89,0.0,0.0,88,0.00,,---,0.00,VWS V14.01,2013-01-19 02:49:00,
2013-01-18 20:50:00,40.6,37.3,30.42,East,89,0.0,0.0,88,0.00,,---,0.00,VWS V14.01,2013-01-19 02:50:00,
2013-01-18 20:51:00,40.6,37.3,30.42,East,89,0.0,0.0,88,0.00,,---,0.00,VWS V14.01,2013-01-19 02:51:00,
2013-01-18 20:53:00,40.5,37.2,30.42,East,89,0.0,0.0,88,0.00,,---,0.00,VWS V14.01,2013-01-19 02:53:00,
2013-01-18 20:54:00,40.5,37.2,30.42,East,89,0.0,0.0,88,0.00,,---,0.00,VWS V14.01,2013-01-19 02:54:00,
2013-01-18 20:55:00,40.4,37.1,30.43,East,89,0.0,0.0,88,0.00,,---,0.00,VWS V14.01,2013-01-19 02:55:00,
2013-01-18 20:56:00,40.4,37.1,30.43,East,89,0.0,0.0,88,0.00,,---,0.00,VWS V14.01,2013-01-19 02:56:00,
2013-01-18 20:57:00,40.4,37.1,30.42,East,89,0.0,0.0,88,0.00,,---,0.00,VWS V14.01,2013-01-19 02:57:00,
2013-01-18 20:58:00,40.3,37.0,30.42,East,89,0.0,0.0,88,0.00,,---,0.00,VWS V14.01,2013-01-19 02:58:00,
2013-01-18 20:59:00,40.3,37.0,30.42,East,89,0.0,0.0,88,0.00,,---,0.00,VWS V14.01,2013-01-19 02:59:00,
2013-01-18 21:00:00,40.1,36.8,30.42,East,89,0.0,0.0,88,0.00,,---,0.00,VWS V14.01,2013-01-19 03:00:00,
2013-01-18 21:01:00,40.1,36.8,30.42,East,89,0.0,0.0,88,0.00,,---,0.00,VWS V14.01,2013-01-19 03:01:00,
2013-01-18 21:02:00,40.1,36.8,30.42,East,89,0.0,0.0,88,0.00,,---,0.00,VWS V14.01,2013-01-19 03:02:00,
2013-01-18 21:03:00,40.0,36.7,30.43,East,89,0.0,0.0,88,0.00,,---,0.00,VWS V14.01,2013-01-19 03:03:00,
2013-01-18 21:04:00,40.0,36.7,30.42,East,89,0.0,0.0,88,0.00,,---,0.00,VWS V14.01,2013-01-19 03:04:00,
2013-01-18 21:05:00,39.8,36.5,30.43,East,89,0.0,0.0,88,0.00,,---,0.00,VWS V14.01,2013-01-19 03:05:00,
2013-01-18 21:06:00,39.8,36.5,30.43,East,89,0.0,0.0,88,0.00,,---,0.00,VWS V14.01,2013-01-19 03:06:00,
2013-01-18 21:07:00,39.7,36.4,30.43,East,89,0.0,0.0,88,0.00,,---,0.00,VWS V14.01,2013-01-19 03:07:00,
2013-01-18 21:08:00,39.7,36.4,30.42,East,89,0.0,0.0,88,0.00,,---,0.00,VWS V14.01,2013-01-19 03:08:00,
2013-01-18 21:09:00,39.6,36.6,30.43,East,89,0.0,0.0,89,0.00,,---,0.00,VWS V14.01,2013-01-19 03:09:00,
2013-01-18 21:10:00,39.6,36.6,30.43,East,89,0.0,0.0,89,0.00,,---,0.00,VWS V14.01,2013-01-19 03:10:00,
2013-01-18 21:11:00,39.5,36.5,30.43,East,89,0.0,0.0,89,0.00,,---,0.00,VWS V14.01,2013-01-19 03:11:00,
2013-01-18 21:12:00,39.5,36.5,30.43,East,89,0.0,0.0,89,0.00,,---,0.00,VWS V14.01,2013-01-19 03:12:00,
2013-01-18 21:13:00,39.5,36.5,30.42,East,89,0.0,0.0,89,0.00,,---,0.00,VWS V14.01,2013-01-19 03:13:00,
2013-01-18 21:14:00,39.4,36.4,30.43,East,89,0.0,0.0,89,0.00,,---,0.00,VWS V14.01,2013-01-19 03:14:00,
2013-01-18 21:15:00,39.5,36.5,30.42,East,89,0.0,0.0,89,0.00,,---,0.00,VWS V14.01,2013-01-19 03:15:00,
2013-01-18 21:16:00,39.5,36.8,30.42,East,89,0.0,0.0,90,0.00,,---,0.00,VWS V14.01,2013-01-19 03:16:00,
2013-01-18 21:18:00,39.5,36.8,30.43,East,89,0.0,0.0,90,0.00,,---,0.00,VWS V14.01,2013-01-19 03:18:00,
2013-01-18 21:19:00,39.6,36.9,30.43,East,89,0.0,0.0,90,0.00,,---,0.00,VWS V14.01,2013-01-19 03:19:00,
2013-01-18 21:20:00,39.6,36.9,30.42,East,89,0.0,0.0,90,0.00,,---,0.00,VWS V14.01,2013-01-19 03:20:00,
2013-01-18 21:21:00,39.6,36.9,30.43,East,88,0.0,0.0,90,0.00,,---,0.00,VWS V14.01,2013-01-19 03:21:00,
2013-01-18 21:22:00,39.6,36.9,30.42,East,89,0.0,0.0,90,0.00,,---,0.00,VWS V14.01,2013-01-19 03:22:00,
2013-01-18 21:23:00,39.6,36.9,30.42,East,89,0.0,0.0,90,0.00,,---,0.00,VWS V14.01,2013-01-19 03:23:00,
2013-01-18 21:24:00,39.7,37.0,30.42,East,89,0.0,0.0,90,0.00,,---,0.00,VWS V14.01,2013-01-19 03:24:00,
2013-01-18 21:25:00,39.6,36.9,30.42,East,89,0.0,0.0,90,0.00,,---,0.00,VWS V14.01,2013-01-19 03:25:00,
2013-01-18 21:26:00,39.6,36.9,30.42,East,89,0.0,0.0,90,0.00,,---,0.00,VWS V14.01,2013-01-19 03:26:00,
2013-01-18 21:27:00,39.7,37.0,30.42,East,89,0.0,0.0,90,0.00,,---,0.00,VWS V14.01,2013-01-19 03:27:00,
2013-01-18 21:28:00,39.7,37.0,30.42,East,89,0.0,0.0,90,0.00,,---,0.00,VWS V14.01,2013-01-19 03:28:00,
2013-01-18 21:29:00,39.8,37.1,30.42,East,89,0.0,0.0,90,0.00,,---,0.00,VWS V14.01,2013-01-19 03:29:00,
2013-01-18 21:30:00,39.9,37.2,30.42,East,89,0.0,0.0,90,0.00,,---,0.00,VWS V14.01,2013-01-19 03:30:00,
2013-01-18 21:31:00,40.0,37.3,30.42,East,89,0.0,0.0,90,0.00,,---,0.00,VWS V14.01,2013-01-19 03:31:00,
2013-01-18 21:32:00,40.1,37.4,30.42,East,89,0.0,0.0,90,0.00,,---,0.00,VWS V14.01,2013-01-19 03:32:00,
2013-01-18 21:33:00,40.1,37.4,30.42,East,89,0.0,0.0,90,0.00,,---,0.00,VWS V14.01,2013-01-19 03:33:00,
2013-01-18 21:35:00,40.2,37.2,30.42,East,89,0.0,0.0,89,0.00,,---,0.00,VWS V14.01,2013-01-19 03:35:00,
2013-01-18 21:36:00,40.3,37.3,30.42,East,88,0.0,0.0,89,0.00,,---,0.00,VWS V14.01,2013-01-19 03:36:00,
2013-01-18 21:37:00,40.2,37.2,30.42,East,89,0.0,0.0,89,0.00,,---,0.00,VWS V14.01,2013-01-19 03:37:00,
2013-01-18 21:38:00,40.2,37.2,30.42,East,89,0.0,0.0,89,0.00,,---,0.00,VWS V14.01,2013-01-19 03:38:00,
2013-01-18 21:39:00,40.2,37.2,30.42,East,89,0.0,0.0,89,0.00,,---,0.00,VWS V14.01,2013-01-19 03:39:00,
2013-01-18 21:40:00,40.1,37.1,30.42,East,89,0.0,0.0,89,0.00,,---,0.00,VWS V14.01,2013-01-19 03:40:00,
2013-01-18 21:41:00,40.1,37.1,30.42,East,89,0.0,0.0,89,0.00,,---,0.00,VWS V14.01,2013-01-19 03:41:00,
2013-01-18 21:42:00,40.0,37.0,30.42,East,89,0.0,0.0,89,0.00,,---,0.00,VWS V14.01,2013-01-19 03:42:00,
2013-01-18 21:43:00,40.0,37.0,30.42,East,89,0.0,0.0,89,0.00,,---,0.00,VWS V14.01,2013-01-19 03:43:00,
2013-01-18 21:44:00,39.9,36.9,30.42,East,89,0.0,0.0,89,0.00,,---,0.00,VWS V14.01,2013-01-19 03:44:00,
2013-01-18 21:45:00,39.8,36.8,30.42,East,89,0.0,0.0,89,0.00,,---,0.00,VWS V14.01,2013-01-19 03:45:00,
2013-01-18 21:46:00,39.8,36.8,30.42,East,89,0.0,0.0,89,0.00,,---,0.00,VWS V14.01,2013-01-19 03:46:00,
2013-01-18 21:47:00,39.7,36.7,30.42,East,89,0.0,0.0,89,0.00,,---,0.00,VWS V14.01,2013-01-19 03:47:00,
2013-01-18 21:48:00,39.5,36.2,30.41,East,89,0.0,0.0,88,0.00,,---,0.00,VWS V14.01,2013-01-19 03:48:00,
2013-01-18 21:49:00,39.5,36.2,30.41,East,89,0.0,0.0,88,0.00,,---,0.00,VWS V14.01,2013-01-19 03:49:00,
2013-01-18 21:50:00,39.5,36.2,30.41,East,89,0.0,0.0,88,0.00,,---,0.00,VWS V14.01,2013-01-19 03:50:00,
2013-01-18 21:51:00,39.3,36.0,30.41,East,89,0.0,0.0,88,0.00,,---,0.00,VWS V14.01,2013-01-19 03:51:00,
2013-01-18 21:52:00,39.3,36.0,30.41,East,89,0.0,0.0,88,0.00,,---,0.00,VWS V14.01,2013-01-19 03:52:00,
2013-01-18 21:53:00,39.1,35.8,30.41,East,87,0.0,0.0,88,0.00,,---,0.00,VWS V14.01,2013-01-19 03:53:00,
2013-01-18 21:54:00,39.1,35.8,30.41,East,87,0.0,0.0,88,0.00,,---,0.00,VWS V14.01,2013-01-19 03:54:00,
2013-01-18 21:55:00,39.1,35.8,30.41,East,89,0.0,0.0,88,0.00,,---,0.00,VWS V14.01,2013-01-19 03:55:00,
2013-01-18 21:56:00,39.0,36.0,30.41,East,89,0.0,0.0,89,0.00,,---,0.00,VWS V14.01,2013-01-19 03:56:00,
2013-01-18 21:57:00,38.9,35.9,30.41,East,89,0.0,0.0,89,0.00,,---,0.00,VWS V14.01,2013-01-19 03:57:00,
2013-01-18 21:58:00,38.9,35.9,30.41,East,89,0.0,0.0,89,0.00,,---,0.00,VWS V14.01,2013-01-19 03:58:00,
2013-01-18 21:59:00,38.9,35.9,30.41,East,89,0.0,0.0,89,0.00,,---,0.00,VWS V14.01,2013-01-19 03:59:00,
2013-01-18 22:00:00,38.8,35.8,30.41,East,89,0.0,0.0,89,0.00,,---,0.00,VWS V14.01,2013-01-19 04:00:00,
2013-01-18 22:01:00,38.8,35.8,30.41,East,89,0.0,0.0,89,0.00,,---,0.00,VWS V14.01,2013-01-19 04:01:00,
2013-01-18 22:02:00,38.8,36.1,30.41,East,89,0.0,0.0,90,0.00,,---,0.00,VWS V14.01,2013-01-19 04:02:00,
2013-01-18 22:03:00,38.8,36.1,30.41,East,89,0.0,0.0,90,0.00,,---,0.00,VWS V14.01,2013-01-19 04:03:00,
2013-01-18 22:04:00,38.9,36.2,30.41,East,89,0.0,0.0,90,0.00,,---,0.00,VWS V14.01,2013-01-19 04:04:00,
2013-01-18 22:06:00,38.9,36.2,30.41,East,89,0.0,0.0,90,0.00,,---,0.00,VWS V14.01,2013-01-19 04:06:00,
2013-01-18 22:07:00,38.9,36.2,30.41,East,89,0.0,0.0,90,0.00,,---,0.00,VWS V14.01,2013-01-19 04:07:00,
2013-01-18 22:08:00,38.9,36.2,30.41,East,89,0.0,0.0,90,0.00,,---,0.00,VWS V14.01,2013-01-19 04:08:00,
2013-01-18 22:09:00,38.9,36.2,30.41,East,88,0.0,0.0,90,0.00,,---,0.00,VWS V14.01,2013-01-19 04:09:00,
2013-01-18 22:10:00,38.9,36.2,30.41,East,88,0.0,0.0,90,0.00,,---,0.00,VWS V14.01,2013-01-19 04:10:00,
2013-01-18 22:11:00,39.0,36.6,30.41,East,89,0.0,0.0,91,0.00,,---,0.00,VWS V14.01,2013-01-19 04:11:00,
2013-01-18 22:12:00,39.0,36.6,30.41,East,89,0.0,0.0,91,0.00,,---,0.00,VWS V14.01,2013-01-19 04:12:00,
2013-01-18 22:13:00,39.1,36.7,30.41,East,89,0.0,0.0,91,0.00,,---,0.00,VWS V14.01,2013-01-19 04:13:00,
2013-01-18 22:14:00,39.2,36.5,30.41,East,89,0.0,0.0,90,0.00,,---,0.00,VWS V14.01,2013-01-19 04:14:00,
2013-01-18 22:15:00,39.2,36.5,30.41,East,89,0.0,0.0,90,0.00,,---,0.00,VWS V14.01,2013-01-19 04:15:00,
2013-01-18 22:16:00,39.2,36.5,30.41,East,89,0.0,0.0,90,0.00,,---,0.00,VWS V14.01,2013-01-19 04:16:00,
2013-01-18 22:17:00,39.1,36.4,30.41,East,89,0.0,0.0,90,0.00,,---,0.00,VWS V14.01,2013-01-19 04:17:00,
2013-01-18 22:18:00,39.1,36.4,30.41,East,89,0.0,0.0,90,0.00,,---,0.00,VWS V14.01,2013-01-19 04:18:00,
2013-01-18 22:19:00,39.0,36.3,30.41,East,89,0.0,0.0,90,0.00,,---,0.00,VWS V14.01,2013-01-19 04:19:00,
2013-01-18 22:20:00,39.0,36.3,30.41,East,89,0.0,0.0,90,0.00,,---,0.00,VWS V14.01,2013-01-19 04:20:00,
2013-01-18 22:21:00,38.9,36.2,30.41,East,89,0.0,0.0,90,0.00,,---,0.00,VWS V14.01,2013-01-19 04:21:00,
2013-01-18 22:22:00,38.9,36.2,30.41,East,89,0.0,0.0,90,0.00,,---,0.00,VWS V14.01,2013-01-19 04:22:00,
2013-01-18 22:23:00,38.8,36.1,30.41,East,89,0.0,0.0,90,0.00,,---,0.00,VWS V14.01,2013-01-19 04:23:00,
2013-01-18 22:24:00,38.7,36.0,30.41,East,89,0.0,0.0,90,0.00,,---,0.00,VWS V14.01,2013-01-19 04:24:00,
2013-01-18 22:25:00,38.7,36.0,30.41,East,89,0.0,0.0,90,0.00,,---,0.00,VWS V14.01,2013-01-19 04:25:00,
2013-01-18 22:26:00,38.6,35.9,30.41,East,89,0.0,0.0,90,0.00,,---,0.00,VWS V14.01,2013-01-19 04:26:00,
2013-01-18 22:27:00,38.5,35.8,30.40,East,89,0.0,0.0,90,0.00,,---,0.00,VWS V14.01,2013-01-19 04:27:00,
2013-01-18 22:28:00,38.5,35.8,30.40,East,89,0.0,0.0,90,0.00,,---,0.00,VWS V14.01,2013-01-19 04:28:00,
2013-01-18 22:29:00,38.3,35.6,30.40,East,89,0.0,0.0,90,0.00,,---,0.00,VWS V14.01,2013-01-19 04:29:00,
2013-01-18 22:30:00,38.3,35.6,30.40,East,89,0.0,0.0,90,0.00,,---,0.00,VWS V14.01,2013-01-19 04:30:00,
2013-01-18 22:31:00,38.2,35.5,30.40,East,89,0.0,0.0,90,0.00,,---,0.00,VWS V14.01,2013-01-19 04:31:00,
2013-01-18 22:32:00,38.1,35.4,30.40,East,89,0.0,0.0,90,0.00,,---,0.00,VWS V14.01,2013-01-19 04:32:00,
2013-01-18 22:33:00,38.1,35.4,30.40,East,89,0.0,0.0,90,0.00,,---,0.00,VWS V14.01,2013-01-19 04:33:00,
2013-01-18 22:34:00,38.0,35.3,30.40,East,89,0.0,0.0,90,0.00,,---,0.00,VWS V14.01,2013-01-19 04:34:00,
2013-01-18 22:35:00,37.9,35.2,30.40,East,89,0.0,0.0,90,0.00,,---,0.00,VWS V14.01,2013-01-19 04:35:00,
2013-01-18 22:36:00,37.9,35.2,30.40,East,89,0.0,0.0,90,0.00,,---,0.00,VWS V14.01,2013-01-19 04:36:00,
2013-01-18 22:37:00,37.9,35.2,30.40,East,88,0.0,0.0,90,0.00,,---,0.00,VWS V14.01,2013-01-19 04:37:00,
2013-01-18 22:38:00,37.9,35.5,30.40,East,89,0.0,0.0,91,0.00,,---,0.00,VWS V14.01,2013-01-19 04:38:00,
2013-01-18 22:39:00,37.9,35.5,30.40,East,89,0.0,0.0,91,0.00,,---,0.00,VWS V14.01,2013-01-19 04:39:00,
2013-01-18 22:40:00,37.9,35.5,30.40,East,89,0.0,0.0,91,0.00,,---,0.00,VWS V14.01,2013-01-19 04:40:00,
2013-01-18 22:41:00,37.9,35.5,30.40,East,89,0.0,0.0,91,0.00,,---,0.00,VWS V14.01,2013-01-19 04:41:00,
2013-01-18 22:42:00,38.0,35.9,30.40,East,88,0.0,0.0,92,0.00,,---,0.00,VWS V14.01,2013-01-19 04:42:00,
2013-01-18 22:43:00,38.0,35.9,30.40,East,89,0.0,0.0,92,0.00,,---,0.00,VWS V14.01,2013-01-19 04:43:00,
2013-01-18 22:44:00,38.0,35.9,30.40,East,89,0.0,0.0,92,0.00,,---,0.00,VWS V14.01,2013-01-19 04:44:00,
2013-01-18 22:45:00,38.0,35.9,30.40,East,89,0.0,0.0,92,0.00,,---,0.00,VWS V14.01,2013-01-19 04:45:00,
2013-01-18 22:46:00,38.0,35.9,30.40,East,89,0.0,0.0,92,0.00,,---,0.00,VWS V14.01,2013-01-19 04:46:00,
2013-01-18 22:47:00,38.0,35.9,30.40,East,89,0.0,0.0,92,0.00,,---,0.00,VWS V14.01,2013-01-19 04:47:00,
2013-01-18 22:48:00,38.0,35.9,30.40,East,89,0.0,0.0,92,0.00,,---,0.00,VWS V14.01,2013-01-19 04:48:00,
2013-01-18 22:49:00,37.9,35.8,30.40,East,89,0.0,0.0,92,0.00,,---,0.00,VWS V14.01,2013-01-19 04:49:00,
2013-01-18 22:50:00,37.9,35.5,30.40,East,89,0.0,0.0,91,0.00,,---,0.00,VWS V14.01,2013-01-19 04:50:00,
2013-01-18 22:51:00,37.9,35.8,30.40,East,89,0.0,0.0,92,0.00,,---,0.00,VWS V14.01,2013-01-19 04:51:00,
2013-01-18 22:52:00,37.9,35.8,30.40,East,89,0.0,0.0,92,0.00,,---,0.00,VWS V14.01,2013-01-19 04:52:00,
2013-01-18 22:53:00,37.9,35.8,30.40,East,89,0.0,0.0,92,0.00,,---,0.00,VWS V14.01,2013-01-19 04:53:00,
2013-01-18 22:54:00,37.9,35.8,30.40,East,89,0.0,0.0,92,0.00,,---,0.00,VWS V14.01,2013-01-19 04:54:00,
2013-01-18 22:55:00,37.8,35.7,30.40,East,89,0.0,0.0,92,0.00,,---,0.00,VWS V14.01,2013-01-19 04:55:00,
2013-01-18 22:56:00,37.8,35.7,30.39,East,89,0.0,0.0,92,0.00,,---,0.00,VWS V14.01,2013-01-19 04:56:00,
2013-01-18 22:57:00,37.8,35.7,30.39,East,89,0.0,0.0,92,0.00,,---,0.00,VWS V14.01,2013-01-19 04:57:00,
2013-01-18 22:58:00,37.7,35.6,30.39,East,89,0.0,0.0,92,0.00,,---,0.00,VWS V14.01,2013-01-19 04:58:00,
2013-01-18 22:59:00,37.7,35.6,30.40,East,89,0.0,0.0,92,0.00,,---,0.00,VWS V14.01,2013-01-19 04:59:00,
2013-01-18 23:00:00,37.7,35.6,30.39,East,89,0.0,0.0,92,0.00,,---,0.00,VWS V14.01,2013-01-19 05:00:00,
2013-01-18 23:01:00,37.7,35.6,30.39,East,89,0.0,0.0,92,0.00,,---,0.00,VWS V14.01,2013-01-19 05:01:00,
2013-01-18 23:02:00,37.7,35.6,30.39,East,89,0.0,0.0,92,0.00,,---,0.00,VWS V14.01,2013-01-19 05:02:00,
2013-01-18 23:03:00,37.7,35.6,30.39,East,89,0.0,0.0,92,0.00,,---,0.00,VWS V14.01,2013-01-19 05:03:00,
2013-01-18 23:05:00,37.6,35.5,30.39,East,89,0.0,0.0,92,0.00,,---,0.00,VWS V14.01,2013-01-19 05:05:00,
2013-01-18 23:06:00,37.7,35.6,30.39,East,89,0.0,0.0,92,0.00,,---,0.00,VWS V14.01,2013-01-19 05:06:00,
2013-01-18 23:07:00,37.6,35.5,30.39,East,89,0.0,0.0,92,0.00,,---,0.00,VWS V14.01,2013-01-19 05:07:00,
2013-01-18 23:08:00,37.6,35.5,30.39,East,89,0.0,0.0,92,0.00,,---,0.00,VWS V14.01,2013-01-19 05:08:00,
2013-01-18 23:10:00,37.5,35.4,30.39,East,89,0.0,0.0,92,0.00,,---,0.00,VWS V14.01,2013-01-19 05:10:00,
2013-01-18 23:11:00,37.5,35.4,30.39,East,89,0.0,0.0,92,0.00,,---,0.00,VWS V14.01,2013-01-19 05:11:00,
2013-01-18 23:13:00,37.5,35.4,30.39,East,89,0.0,0.0,92,0.00,,---,0.00,VWS V14.01,2013-01-19 05:13:00,
2013-01-18 23:14:00,37.5,35.4,30.39,East,89,0.0,0.0,92,0.00,,---,0.00,VWS V14.01,2013-01-19 05:14:00,
2013-01-18 23:16:00,37.5,35.4,30.39,East,89,0.0,0.0,92,0.00,,---,0.00,VWS V14.01,2013-01-19 05:16:00,
2013-01-18 23:17:00,37.4,35.3,30.39,East,89,0.0,0.0,92,0.00,,---,0.00,VWS V14.01,2013-01-19 05:17:00,
2013-01-18 23:18:00,37.4,35.3,30.39,East,89,0.0,0.0,92,0.00,,---,0.00,VWS V14.01,2013-01-19 05:18:00,
2013-01-18 23:19:00,37.4,35.3,30.39,East,89,0.0,0.0,92,0.00,,---,0.00,VWS V14.01,2013-01-19 05:19:00,
2013-01-18 23:20:00,37.4,35.6,30.39,East,88,0.0,0.0,93,0.00,,---,0.00,VWS V14.01,2013-01-19 05:20:00,
2013-01-18 23:21:00,37.4,35.6,30.39,East,89,0.0,0.0,93,0.00,,---,0.00,VWS V14.01,2013-01-19 05:21:00,
2013-01-18 23:22:00,37.4,35.6,30.39,East,89,0.0,0.0,93,0.00,,---,0.00,VWS V14.01,2013-01-19 05:22:00,
2013-01-18 23:23:00,37.4,35.6,30.39,East,87,0.0,0.0,93,0.00,,---,0.00,VWS V14.01,2013-01-19 05:23:00,
2013-01-18 23:24:00,37.3,35.5,30.39,East,89,0.0,0.0,93,0.00,,---,0.00,VWS V14.01,2013-01-19 05:24:00,
2013-01-18 23:25:00,37.3,35.5,30.39,East,89,0.0,0.0,93,0.00,,---,0.00,VWS V14.01,2013-01-19 05:25:00,
2013-01-18 23:26:00,37.3,35.5,30.39,East,89,0.0,0.0,93,0.00,,---,0.00,VWS V14.01,2013-01-19 05:26:00,
2013-01-18 23:27:00,37.3,35.5,30.39,East,89,0.0,0.0,93,0.00,,---,0.00,VWS V14.01,2013-01-19 05:27:00,
2013-01-18 23:28:00,37.4,35.6,30.39,East,89,0.0,0.0,93,0.00,,---,0.00,VWS V14.01,2013-01-19 05:28:00,
2013-01-18 23:29:00,37.4,35.6,30.39,East,89,0.0,0.0,93,0.00,,---,0.00,VWS V14.01,2013-01-19 05:29:00,
2013-01-18 23:30:00,37.4,35.6,30.39,East,89,0.0,0.0,93,0.00,,---,0.00,VWS V14.01,2013-01-19 05:30:00,
2013-01-18 23:31:00,37.4,35.6,30.39,East,89,0.0,0.0,93,0.00,,---,0.00,VWS V14.01,2013-01-19 05:31:00,
2013-01-18 23:32:00,37.4,35.6,30.39,East,89,0.0,0.0,93,0.00,,---,0.00,VWS V14.01,2013-01-19 05:32:00,
2013-01-18 23:33:00,37.4,35.6,30.39,East,89,0.0,0.0,93,0.00,,---,0.00,VWS V14.01,2013-01-19 05:33:00,
2013-01-18 23:34:00,37.4,35.6,30.39,East,89,0.0,0.0,93,0.00,,---,0.00,VWS V14.01,2013-01-19 05:34:00,
2013-01-18 23:35:00,37.4,35.6,30.39,East,89,0.0,0.0,93,0.00,,---,0.00,VWS V14.01,2013-01-19 05:35:00,
2013-01-18 23:36:00,37.4,35.6,30.39,East,89,0.0,0.0,93,0.00,,---,0.00,VWS V14.01,2013-01-19 05:36:00,
2013-01-18 23:37:00,37.5,35.7,30.39,East,89,0.0,0.0,93,0.00,,---,0.00,VWS V14.01,2013-01-19 05:37:00,
2013-01-18 23:38:00,37.5,35.7,30.39,East,89,0.0,0.0,93,0.00,,---,0.00,VWS V14.01,2013-01-19 05:38:00,
2013-01-18 23:39:00,37.5,35.7,30.39,East,89,0.0,0.0,93,0.00,,---,0.00,VWS V14.01,2013-01-19 05:39:00,
2013-01-18 23:40:00,37.5,35.7,30.39,East,89,0.0,0.0,93,0.00,,---,0.00,VWS V14.01,2013-01-19 05:40:00,
2013-01-18 23:41:00,37.5,35.7,30.39,East,89,0.0,0.0,93,0.00,,---,0.00,VWS V14.01,2013-01-19 05:41:00,
2013-01-18 23:42:00,37.5,35.7,30.39,East,89,0.0,0.0,93,0.00,,---,0.00,VWS V14.01,2013-01-19 05:42:00,
2013-01-18 23:43:00,37.5,35.7,30.39,East,89,0.0,0.0,93,0.00,,---,0.00,VWS V14.01,2013-01-19 05:43:00,
2013-01-18 23:44:00,37.5,35.7,30.39,East,89,0.0,0.0,93,0.00,,---,0.00,VWS V14.01,2013-01-19 05:44:00,
2013-01-18 23:45:00,37.5,35.7,30.39,East,89,0.0,0.0,93,0.00,,---,0.00,VWS V14.01,2013-01-19 05:45:00,
2013-01-18 23:46:00,37.4,35.6,30.39,East,89,0.0,0.0,93,0.00,,---,0.00,VWS V14.01,2013-01-19 05:46:00,
2013-01-18 23:47:00,37.4,35.6,30.39,East,89,0.0,0.0,93,0.00,,---,0.00,VWS V14.01,2013-01-19 05:47:00,
2013-01-18 23:49:00,37.4,35.6,30.39,East,89,0.0,0.0,93,0.00,,---,0.00,VWS V14.01,2013-01-19 05:49:00,
2013-01-18 23:50:00,37.3,35.5,30.39,East,89,0.0,0.0,93,0.00,,---,0.00,VWS V14.01,2013-01-19 05:50:00,
2013-01-18 23:51:00,37.3,35.5,30.39,East,88,0.0,0.0,93,0.00,,---,0.00,VWS V14.01,2013-01-19 05:51:00,
2013-01-18 23:52:00,37.3,35.5,30.39,East,89,0.0,0.0,93,0.00,,---,0.00,VWS V14.01,2013-01-19 05:52:00,
2013-01-18 23:53:00,37.3,35.5,30.39,East,89,0.0,0.0,93,0.00,,---,0.00,VWS V14.01,2013-01-19 05:53:00,
2013-01-18 23:54:00,37.3,35.5,30.39,East,89,0.0,0.0,93,0.00,,---,0.00,VWS V14.01,2013-01-19 05:54:00,
2013-01-18 23:55:00,37.3,35.5,30.39,East,89,0.0,0.0,93,0.00,,---,0.00,VWS V14.01,2013-01-19 05:55:00,
2013-01-18 23:56:00,37.3,35.5,30.39,East,89,0.0,0.0,93,0.00,,---,0.00,VWS V14.01,2013-01-19 05:56:00,
2013-01-18 23:57:00,37.4,35.6,30.39,East,89,0.0,0.0,93,0.00,,---,0.00,VWS V14.01,2013-01-19 05:57:00,
2013-01-18 23:58:00,37.6,35.8,30.39,East,89,0.0,0.0,93,0.00,,---,0.00,VWS V14.01,2013-01-19 05:58:00,
2013-01-18 23:59:00,37.6,35.8,30.39,East,89,0.0,0.0,93,0.00,,---,0.00,VWS V14.01,2013-01-19 05:59:00,